Time,TemperatureF,DewpointF,PressureIn,WindDirection,WindDirectionDegrees,WindSpeedMPH,WindSpeedGustMPH,Humidity,HourlyPrecipIn,Conditions,Clouds,dailyrainin,SolarRadiationWatts/m^2,SoftwareType,DateUTC
2013-02-18 00:02:00,28.3,21.1,29.94,South,174,5.0,8.0,74,0.00,,,0.00,0,Wunderground v.1.15,2013-02-18 06:02:00,
2013-02-18 00:03:00,28.3,21.1,29.94,ESE,118,5.0,8.0,74,0.00,,,0.00,0,Wunderground v.1.15,2013-02-18 06:03:00,
2013-02-18 00:08:00,28.4,21.2,29.94,SE,141,7.0,13.0,74,0.00,,,0.00,0,Wunderground v.1.15,2013-02-18 06:08:00,
2013-02-18 00:09:00,28.4,21.2,29.94,SSE,165,7.0,13.0,74,0.00,,,0.00,0,Wunderground v.1.15,2013-02-18 06:09:00,
2013-02-18 00:11:00,28.4,21.2,29.93,SE,139,7.0,8.0,74,0.00,,,0.00,0,Wunderground v.1.15,2013-02-18 06:11:00,
2013-02-18 00:12:00,28.4,21.2,29.93,SE,143,7.0,8.0,74,0.00,,,0.00,0,Wunderground v.1.15,2013-02-18 06:12:00,
2013-02-18 00:18:00,28.4,21.2,29.93,SE,130,6.0,13.0,74,0.00,,,0.00,0,Wunderground v.1.15,2013-02-18 06:18:00,
2013-02-18 00:19:00,28.4,21.2,29.93,ESE,109,6.0,13.0,74,0.00,,,0.00,0,Wunderground v.1.15,2013-02-18 06:19:00,
2013-02-18 00:21:00,28.5,21.3,29.93,South,188,6.0,7.0,74,0.00,,,0.00,0,Wunderground v.1.15,2013-02-18 06:21:00,
2013-02-18 00:22:00,28.5,21.3,29.93,SE,126,6.0,7.0,74,0.00,,,0.00,0,Wunderground v.1.15,2013-02-18 06:22:00,
2013-02-18 00:24:00,28.4,21.2,29.93,SE,134,6.0,14.0,74,0.00,,,0.00,0,Wunderground v.1.15,2013-02-18 06:24:00,
2013-02-18 00:29:00,28.4,21.2,29.92,SE,127,7.0,14.0,74,0.00,,,0.00,0,Wunderground v.1.15,2013-02-18 06:29:00,
2013-02-18 00:31:00,28.4,21.2,29.92,SE,146,7.0,9.0,74,0.00,,,0.00,0,Wunderground v.1.15,2013-02-18 06:31:00,
2013-02-18 00:33:00,28.4,21.2,29.92,SE,141,8.0,9.0,74,0.00,,,0.00,0,Wunderground v.1.15,2013-02-18 06:33:00,
2013-02-18 00:35:00,28.4,21.2,29.92,SE,137,8.0,9.0,74,0.00,,,0.00,0,Wunderground v.1.15,2013-02-18 06:35:00,
2013-02-18 00:36:00,28.4,21.2,29.92,SSE,155,8.0,9.0,74,0.00,,,0.00,0,Wunderground v.1.15,2013-02-18 06:36:00,
2013-02-18 00:39:00,28.4,21.2,29.91,SE,146,7.0,11.0,74,0.00,,,0.00,0,Wunderground v.1.15,2013-02-18 06:39:00,
2013-02-18 00:42:00,28.4,21.2,29.91,SSE,149,7.0,17.0,74,0.00,,,0.00,0,Wunderground v.1.15,2013-02-18 06:42:00,
2013-02-18 00:46:00,28.5,21.3,29.91,SSE,148,8.0,17.0,74,0.00,,,0.00,0,Wunderground v.1.15,2013-02-18 06:46:00,
2013-02-18 00:47:00,28.5,21.3,29.91,SE,129,8.0,17.0,74,0.00,,,0.00,0,Wunderground v.1.15,2013-02-18 06:47:00,
2013-02-18 00:52:00,28.5,21.3,29.90,ESE,117,8.0,15.0,74,0.00,,,0.00,0,Wunderground v.1.15,2013-02-18 06:52:00,
2013-02-18 00:53:00,28.4,21.5,29.90,SSE,163,8.0,15.0,75,0.00,,,0.00,0,Wunderground v.1.15,2013-02-18 06:53:00,
2013-02-18 00:54:00,28.4,21.5,29.90,ESE,105,7.0,15.0,75,0.00,,,0.00,0,Wunderground v.1.15,2013-02-18 06:54:00,
2013-02-18 00:59:00,28.4,21.2,29.89,SE,146,7.0,15.0,74,0.00,,,0.00,0,Wunderground v.1.15,2013-02-18 06:59:00,
2013-02-18 01:02:00,28.3,21.4,29.89,SSE,151,6.0,8.0,75,0.00,,,0.00,0,Wunderground v.1.15,2013-02-18 07:02:00,
2013-02-18 01:03:00,28.3,21.4,29.89,SE,140,5.0,12.0,75,0.00,,,0.00,0,Wunderground v.1.15,2013-02-18 07:03:00,
2013-02-18 01:04:00,28.3,21.4,29.89,SE,140,5.0,12.0,75,0.00,,,0.00,0,Wunderground v.1.15,2013-02-18 07:04:00,
2013-02-18 01:05:00,28.3,21.4,29.89,SE,130,6.0,12.0,75,0.00,,,0.00,0,Wunderground v.1.15,2013-02-18 07:05:00,
2013-02-18 01:07:00,28.3,21.4,29.89,South,175,6.0,12.0,75,0.00,,,0.00,0,Wunderground v.1.15,2013-02-18 07:07:00,
2013-02-18 01:12:00,28.3,21.4,29.88,South,176,7.0,9.0,75,0.00,,,0.00,0,Wunderground v.1.15,2013-02-18 07:12:00,
2013-02-18 01:13:00,28.3,21.4,29.89,SSE,162,7.0,9.0,75,0.00,,,0.00,0,Wunderground v.1.15,2013-02-18 07:13:00,
2013-02-18 01:15:00,28.3,21.4,29.88,SSE,158,7.0,9.0,75,0.00,,,0.00,0,Wunderground v.1.15,2013-02-18 07:15:00,
2013-02-18 01:17:00,28.3,21.4,29.88,SE,142,6.0,9.0,75,0.00,,,0.00,0,Wunderground v.1.15,2013-02-18 07:17:00,
2013-02-18 01:18:00,28.4,21.5,29.88,SE,136,7.0,12.0,75,0.00,,,0.00,0,Wunderground v.1.15,2013-02-18 07:18:00,
2013-02-18 01:20:00,28.4,21.5,29.88,SSE,148,7.0,8.0,75,0.00,,,0.00,0,Wunderground v.1.15,2013-02-18 07:20:00,
2013-02-18 01:22:00,28.4,21.5,29.88,SE,132,6.0,8.0,75,0.00,,,0.00,0,Wunderground v.1.15,2013-02-18 07:22:00,
2013-02-18 01:27:00,28.4,21.5,29.87,SSE,157,8.0,13.0,75,0.00,,,0.00,0,Wunderground v.1.15,2013-02-18 07:27:00,
2013-02-18 01:28:00,28.4,21.5,29.87,SE,138,8.0,13.0,75,0.00,,,0.00,0,Wunderground v.1.15,2013-02-18 07:28:00,
2013-02-18 01:29:00,28.4,21.5,29.87,SE,146,8.0,13.0,75,0.00,,,0.00,0,Wunderground v.1.15,2013-02-18 07:29:00,
2013-02-18 01:34:00,28.4,21.5,29.87,SE,144,8.0,11.0,75,0.00,,,0.00,0,Wunderground v.1.15,2013-02-18 07:34:00,
2013-02-18 01:35:00,28.4,21.5,29.87,SE,140,8.0,11.0,75,0.00,,,0.00,0,Wunderground v.1.15,2013-02-18 07:35:00,
2013-02-18 01:39:00,28.4,21.5,29.87,SSE,159,8.0,14.0,75,0.00,,,0.00,0,Wunderground v.1.15,2013-02-18 07:39:00,
2013-02-18 01:40:00,28.4,21.5,29.86,South,171,8.0,9.0,75,0.00,,,0.00,0,Wunderground v.1.15,2013-02-18 07:40:00,
2013-02-18 01:42:00,28.4,21.8,29.86,SE,136,8.0,10.0,76,0.00,,,0.00,0,Wunderground v.1.15,2013-02-18 07:42:00,
2013-02-18 01:47:00,28.4,21.8,29.85,SE,143,7.0,10.0,76,0.00,,,0.00,0,Wunderground v.1.15,2013-02-18 07:47:00,
2013-02-18 01:49:00,28.3,21.7,29.85,SSW,196,7.0,10.0,76,0.00,,,0.00,0,Wunderground v.1.15,2013-02-18 07:49:00,
2013-02-18 01:51:00,28.3,21.7,29.85,SE,130,6.0,8.0,76,0.00,,,0.00,0,Wunderground v.1.15,2013-02-18 07:51:00,
2013-02-18 01:53:00,28.4,21.8,29.85,SE,140,6.0,8.0,76,0.00,,,0.00,0,Wunderground v.1.15,2013-02-18 07:53:00,
2013-02-18 01:54:00,28.4,21.8,29.85,SE,125,6.0,8.0,76,0.00,,,0.00,0,Wunderground v.1.15,2013-02-18 07:54:00,
2013-02-18 01:58:00,28.5,21.9,29.85,SSE,157,7.0,11.0,76,0.00,,,0.00,0,Wunderground v.1.15,2013-02-18 07:58:00,
2013-02-18 01:59:00,28.5,21.9,29.85,South,172,7.0,11.0,76,0.00,,,0.00,0,Wunderground v.1.15,2013-02-18 07:59:00,
2013-02-18 02:00:00,28.5,21.9,29.85,SE,146,8.0,15.0,76,0.00,,,0.00,0,Wunderground v.1.15,2013-02-18 08:00:00,
2013-02-18 02:03:00,28.5,21.9,29.84,ESE,121,8.0,15.0,76,0.00,,,0.00,0,Wunderground v.1.15,2013-02-18 08:03:00,
2013-02-18 02:04:00,28.5,21.9,29.84,SSE,149,8.0,15.0,76,0.00,,,0.00,0,Wunderground v.1.15,2013-02-18 08:04:00,
2013-02-18 02:05:00,28.5,21.9,29.85,SSE,160,8.0,15.0,76,0.00,,,0.00,0,Wunderground v.1.15,2013-02-18 08:05:00,
2013-02-18 02:10:00,28.5,21.9,29.84,SSE,167,8.0,8.0,76,0.00,,,0.00,0,Wunderground v.1.15,2013-02-18 08:10:00,
2013-02-18 02:14:00,28.6,22.0,29.84,SE,144,8.0,13.0,76,0.00,,,0.00,0,Wunderground v.1.15,2013-02-18 08:14:00,
2013-02-18 02:15:00,28.6,22.0,29.84,SE,142,8.0,13.0,76,0.00,,,0.00,0,Wunderground v.1.15,2013-02-18 08:15:00,
2013-02-18 02:20:00,28.6,22.0,29.83,ESE,122,8.0,8.0,76,0.00,,,0.00,0,Wunderground v.1.15,2013-02-18 08:20:00,
2013-02-18 02:21:00,28.6,22.0,29.83,SSW,202,8.0,8.0,76,0.00,,,0.00,0,Wunderground v.1.15,2013-02-18 08:21:00,
2013-02-18 02:25:00,28.6,22.0,29.83,SSE,147,8.0,16.0,76,0.00,,,0.00,0,Wunderground v.1.15,2013-02-18 08:25:00,
2013-02-18 02:29:00,28.7,22.1,29.83,ESE,117,7.0,16.0,76,0.00,,,0.00,0,Wunderground v.1.15,2013-02-18 08:29:00,
2013-02-18 02:31:00,28.7,22.4,29.83,ESE,121,7.0,8.0,77,0.00,,,0.00,0,Wunderground v.1.15,2013-02-18 08:31:00,
2013-02-18 02:35:00,28.7,22.4,29.82,ESE,114,8.0,19.0,77,0.00,,,0.00,0,Wunderground v.1.15,2013-02-18 08:35:00,
2013-02-18 02:36:00,28.8,22.5,29.82,SE,128,8.0,19.0,77,0.00,,,0.00,0,Wunderground v.1.15,2013-02-18 08:36:00,
2013-02-18 02:37:00,28.7,22.4,29.82,SSE,156,8.0,19.0,77,0.00,,,0.00,0,Wunderground v.1.15,2013-02-18 08:37:00,
2013-02-18 02:41:00,28.8,22.5,29.82,SE,130,8.0,9.0,77,0.00,,,0.00,0,Wunderground v.1.15,2013-02-18 08:41:00,
2013-02-18 02:42:00,28.8,22.5,29.82,SSE,156,8.0,9.0,77,0.00,,,0.00,0,Wunderground v.1.15,2013-02-18 08:42:00,
2013-02-18 02:43:00,28.8,22.5,29.82,SSE,160,8.0,9.0,77,0.00,,,0.00,0,Wunderground v.1.15,2013-02-18 08:43:00,
2013-02-18 02:46:00,28.8,22.5,29.82,SSE,156,7.0,10.0,77,0.00,,,0.00,0,Wunderground v.1.15,2013-02-18 08:46:00,
2013-02-18 02:49:00,28.7,22.4,29.82,South,169,7.0,11.0,77,0.00,,,0.00,0,Wunderground v.1.15,2013-02-18 08:49:00,
2013-02-18 02:50:00,28.8,22.5,29.82,ESE,113,6.0,6.0,77,0.00,,,0.00,0,Wunderground v.1.15,2013-02-18 08:50:00,
2013-02-18 02:52:00,28.8,22.5,29.82,ESE,119,6.0,9.0,77,0.00,,,0.00,0,Wunderground v.1.15,2013-02-18 08:52:00,
2013-02-18 02:55:00,28.8,22.5,29.81,South,183,6.0,13.0,77,0.00,,,0.00,0,Wunderground v.1.15,2013-02-18 08:55:00,
2013-02-18 02:57:00,28.8,22.5,29.81,SSE,166,7.0,13.0,77,0.00,,,0.00,0,Wunderground v.1.15,2013-02-18 08:57:00,
2013-02-18 03:01:00,28.9,22.6,29.81,SSE,153,7.0,7.0,77,0.00,,,0.00,0,Wunderground v.1.15,2013-02-18 09:01:00,
2013-02-18 03:03:00,28.9,22.6,29.81,SSE,154,7.0,11.0,77,0.00,,,0.00,0,Wunderground v.1.15,2013-02-18 09:03:00,
2013-02-18 03:06:00,28.9,22.6,29.81,South,172,6.0,11.0,77,0.00,,,0.00,0,Wunderground v.1.15,2013-02-18 09:06:00,
2013-02-18 03:08:00,28.9,22.6,29.81,SSW,200,6.0,11.0,77,0.00,,,0.00,0,Wunderground v.1.15,2013-02-18 09:08:00,
2013-02-18 03:10:00,28.9,22.6,29.81,SSE,149,5.0,11.0,77,0.00,,,0.00,0,Wunderground v.1.15,2013-02-18 09:10:00,
2013-02-18 03:13:00,29.0,22.7,29.80,SSE,155,6.0,13.0,77,0.00,,,0.00,0,Wunderground v.1.15,2013-02-18 09:13:00,
2013-02-18 03:15:00,29.0,22.7,29.80,SSE,150,6.0,13.0,77,0.00,,,0.00,0,Wunderground v.1.15,2013-02-18 09:15:00,
2013-02-18 03:17:00,29.0,22.7,29.80,SSE,147,6.0,13.0,77,0.00,,,0.00,0,Wunderground v.1.15,2013-02-18 09:17:00,
2013-02-18 03:18:00,29.0,22.7,29.80,South,172,6.0,13.0,77,0.00,,,0.00,0,Wunderground v.1.15,2013-02-18 09:18:00,
2013-02-18 03:21:00,29.0,22.7,29.80,SSE,149,6.0,12.0,77,0.00,,,0.00,0,Wunderground v.1.15,2013-02-18 09:21:00,
2013-02-18 03:23:00,29.0,22.7,29.80,SE,140,6.0,12.0,77,0.00,,,0.00,0,Wunderground v.1.15,2013-02-18 09:23:00,
2013-02-18 03:24:00,29.0,22.7,29.80,SE,144,6.0,12.0,77,0.00,,,0.00,0,Wunderground v.1.15,2013-02-18 09:24:00,
2013-02-18 03:25:00,29.0,22.7,29.79,South,183,5.0,12.0,77,0.00,,,0.00,0,Wunderground v.1.15,2013-02-18 09:25:00,
2013-02-18 03:26:00,29.0,23.0,29.80,SSW,195,5.0,13.0,78,0.00,,,0.00,0,Wunderground v.1.15,2013-02-18 09:26:00,
2013-02-18 03:29:00,29.0,23.0,29.79,ESE,121,6.0,13.0,78,0.00,,,0.00,0,Wunderground v.1.15,2013-02-18 09:29:00,
2013-02-18 03:31:00,29.1,23.1,29.79,SSE,148,6.0,6.0,78,0.00,,,0.00,0,Wunderground v.1.15,2013-02-18 09:31:00,
2013-02-18 03:34:00,29.0,23.0,29.79,SSW,207,6.0,6.0,78,0.00,,,0.00,0,Wunderground v.1.15,2013-02-18 09:34:00,
2013-02-18 03:35:00,29.0,23.0,29.79,SSE,148,6.0,6.0,78,0.00,,,0.00,0,Wunderground v.1.15,2013-02-18 09:35:00,
2013-02-18 03:36:00,29.0,23.0,29.79,SSE,153,7.0,7.0,78,0.00,,,0.00,0,Wunderground v.1.15,2013-02-18 09:36:00,
2013-02-18 03:40:00,29.0,23.0,29.79,South,171,6.0,6.0,78,0.00,,,0.00,0,Wunderground v.1.15,2013-02-18 09:40:00,
2013-02-18 03:41:00,29.0,23.0,29.78,South,177,6.0,11.0,78,0.00,,,0.00,0,Wunderground v.1.15,2013-02-18 09:41:00,
2013-02-18 03:43:00,29.0,23.0,29.78,SE,126,5.0,11.0,78,0.00,,,0.00,0,Wunderground v.1.15,2013-02-18 09:43:00,
2013-02-18 03:46:00,29.0,23.0,29.78,SSE,158,5.0,11.0,78,0.00,,,0.00,0,Wunderground v.1.15,2013-02-18 09:46:00,
2013-02-18 03:49:00,29.0,23.0,29.78,SE,134,5.0,11.0,78,0.00,,,0.00,0,Wunderground v.1.15,2013-02-18 09:49:00,
2013-02-18 03:51:00,29.0,23.0,29.78,South,173,5.0,6.0,78,0.00,,,0.00,0,Wunderground v.1.15,2013-02-18 09:51:00,
2013-02-18 03:52:00,29.0,23.0,29.78,SSE,155,4.0,6.0,78,0.00,,,0.00,0,Wunderground v.1.15,2013-02-18 09:52:00,
2013-02-18 03:53:00,29.0,23.0,29.78,SSE,148,4.0,6.0,78,0.00,,,0.00,0,Wunderground v.1.15,2013-02-18 09:53:00,
2013-02-18 03:58:00,28.9,22.9,29.77,SSE,147,3.0,6.0,78,0.00,,,0.00,0,Wunderground v.1.15,2013-02-18 09:58:00,
2013-02-18 04:03:00,28.9,22.9,29.77,SSE,168,4.0,8.0,78,0.00,,,0.00,0,Wunderground v.1.15,2013-02-18 10:03:00,
2013-02-18 04:05:00,29.0,23.0,29.77,South,172,4.0,8.0,78,0.00,,,0.00,0,Wunderground v.1.15,2013-02-18 10:05:00,
2013-02-18 04:08:00,29.1,23.4,29.77,South,176,6.0,19.0,79,0.00,,,0.00,0,Wunderground v.1.15,2013-02-18 10:08:00,
2013-02-18 04:10:00,29.2,23.5,29.77,SSE,162,6.0,6.0,79,0.00,,,0.00,0,Wunderground v.1.15,2013-02-18 10:10:00,
2013-02-18 04:11:00,29.2,23.5,29.77,South,173,6.0,9.0,79,0.00,,,0.00,0,Wunderground v.1.15,2013-02-18 10:11:00,
2013-02-18 04:12:00,29.3,23.3,29.77,SSE,159,6.0,9.0,78,0.00,,,0.00,0,Wunderground v.1.15,2013-02-18 10:12:00,
2013-02-18 04:16:00,29.3,23.3,29.77,SSW,197,7.0,9.0,78,0.00,,,0.00,0,Wunderground v.1.15,2013-02-18 10:16:00,
2013-02-18 04:17:00,29.3,23.3,29.77,SSE,151,7.0,9.0,78,0.00,,,0.00,0,Wunderground v.1.15,2013-02-18 10:17:00,
2013-02-18 04:18:00,29.3,23.3,29.76,SSE,159,7.0,9.0,78,0.00,,,0.00,0,Wunderground v.1.15,2013-02-18 10:18:00,
2013-02-18 04:22:00,29.2,23.2,29.77,SE,138,6.0,6.0,78,0.00,,,0.00,0,Wunderground v.1.15,2013-02-18 10:22:00,
2013-02-18 04:23:00,29.2,23.2,29.77,SE,138,6.0,6.0,78,0.00,,,0.00,0,Wunderground v.1.15,2013-02-18 10:23:00,
2013-02-18 04:24:00,29.2,23.2,29.77,SE,142,6.0,6.0,78,0.00,,,0.00,0,Wunderground v.1.15,2013-02-18 10:24:00,
2013-02-18 04:25:00,29.1,23.1,29.77,SSE,150,5.0,6.0,78,0.00,,,0.00,0,Wunderground v.1.15,2013-02-18 10:25:00,
2013-02-18 04:29:00,29.2,23.5,29.77,South,176,6.0,11.0,79,0.00,,,0.00,0,Wunderground v.1.15,2013-02-18 10:29:00,
2013-02-18 04:30:00,29.2,23.5,29.76,SSE,167,5.0,5.0,79,0.00,,,0.00,0,Wunderground v.1.15,2013-02-18 10:30:00,
2013-02-18 04:31:00,29.1,23.4,29.77,SSE,148,5.0,8.0,79,0.00,,,0.00,0,Wunderground v.1.15,2013-02-18 10:31:00,
2013-02-18 04:32:00,29.1,23.4,29.77,SE,134,5.0,8.0,79,0.00,,,0.00,0,Wunderground v.1.15,2013-02-18 10:32:00,
2013-02-18 04:36:00,29.0,23.3,29.77,SE,134,5.0,8.0,79,0.00,,,0.00,0,Wunderground v.1.15,2013-02-18 10:36:00,
2013-02-18 04:37:00,29.0,23.3,29.77,SSW,200,4.0,8.0,79,0.00,,,0.00,0,Wunderground v.1.15,2013-02-18 10:37:00,
2013-02-18 04:41:00,28.9,23.2,29.77,South,174,3.0,5.0,79,0.00,,,0.00,0,Wunderground v.1.15,2013-02-18 10:41:00,
2013-02-18 04:42:00,28.9,23.2,29.77,SSE,165,3.0,5.0,79,0.00,,,0.00,0,Wunderground v.1.15,2013-02-18 10:42:00,
2013-02-18 04:45:00,28.9,23.2,29.77,SE,124,3.0,5.0,79,0.00,,,0.00,0,Wunderground v.1.15,2013-02-18 10:45:00,
2013-02-18 04:47:00,28.9,23.2,29.77,South,179,4.0,5.0,79,0.00,,,0.00,0,Wunderground v.1.15,2013-02-18 10:47:00,
2013-02-18 04:50:00,28.9,23.2,29.77,South,171,4.0,4.0,79,0.00,,,0.00,0,Wunderground v.1.15,2013-02-18 10:50:00,
2013-02-18 04:52:00,28.9,23.2,29.76,SSE,157,4.0,5.0,79,0.00,,,0.00,0,Wunderground v.1.15,2013-02-18 10:52:00,
2013-02-18 04:53:00,28.9,23.2,29.76,SE,143,4.0,6.0,79,0.00,,,0.00,0,Wunderground v.1.15,2013-02-18 10:53:00,
2013-02-18 04:55:00,28.9,23.2,29.76,South,189,4.0,6.0,79,0.00,,,0.00,0,Wunderground v.1.15,2013-02-18 10:55:00,
2013-02-18 04:58:00,28.9,23.2,29.76,SE,136,5.0,6.0,79,0.00,,,0.00,0,Wunderground v.1.15,2013-02-18 10:58:00,
2013-02-18 05:00:00,28.9,23.5,29.76,SSE,153,5.0,5.0,80,0.00,,,0.00,0,Wunderground v.1.15,2013-02-18 11:00:00,
2013-02-18 05:03:00,29.0,23.3,29.76,SE,146,5.0,7.0,79,0.00,,,0.00,0,Wunderground v.1.15,2013-02-18 11:03:00,
2013-02-18 05:06:00,29.0,23.3,29.76,SSE,161,5.0,7.0,79,0.00,,,0.00,0,Wunderground v.1.15,2013-02-18 11:06:00,
2013-02-18 05:08:00,29.0,23.3,29.76,SSE,148,5.0,7.0,79,0.00,,,0.00,0,Wunderground v.1.15,2013-02-18 11:08:00,
2013-02-18 05:09:00,29.0,23.3,29.76,SE,132,5.0,7.0,79,0.00,,,0.00,0,Wunderground v.1.15,2013-02-18 11:09:00,
2013-02-18 05:13:00,29.0,23.3,29.75,East,98,4.0,6.0,79,0.00,,,0.00,0,Wunderground v.1.15,2013-02-18 11:13:00,
2013-02-18 05:14:00,28.9,23.2,29.75,East,99,4.0,6.0,79,0.00,,,0.00,0,Wunderground v.1.15,2013-02-18 11:14:00,
2013-02-18 05:15:00,28.9,23.5,29.75,SSE,155,3.0,6.0,80,0.00,,,0.00,0,Wunderground v.1.15,2013-02-18 11:15:00,
2013-02-18 05:19:00,28.9,23.5,29.76,South,180,3.0,6.0,80,0.00,,,0.00,0,Wunderground v.1.15,2013-02-18 11:19:00,
2013-02-18 05:22:00,28.9,23.5,29.76,SSE,148,3.0,6.0,80,0.00,,,0.00,0,Wunderground v.1.15,2013-02-18 11:22:00,
2013-02-18 05:25:00,28.9,23.5,29.75,South,176,4.0,6.0,80,0.00,,,0.00,0,Wunderground v.1.15,2013-02-18 11:25:00,
2013-02-18 05:26:00,28.9,23.5,29.75,SSE,151,4.0,6.0,80,0.00,,,0.00,0,Wunderground v.1.15,2013-02-18 11:26:00,
2013-02-18 05:30:00,28.9,23.5,29.75,SE,139,4.0,5.0,80,0.00,,,0.00,0,Wunderground v.1.15,2013-02-18 11:30:00,
2013-02-18 05:31:00,28.9,23.5,29.75,SE,128,4.0,5.0,80,0.00,,,0.00,0,Wunderground v.1.15,2013-02-18 11:31:00,
2013-02-18 05:32:00,28.9,23.5,29.75,SE,134,4.0,5.0,80,0.00,,,0.00,0,Wunderground v.1.15,2013-02-18 11:32:00,
2013-02-18 05:38:00,28.9,23.5,29.75,SSE,153,4.0,7.0,80,0.00,,,0.00,0,Wunderground v.1.15,2013-02-18 11:38:00,
2013-02-18 05:39:00,28.8,23.4,29.75,SSE,150,4.0,7.0,80,0.00,,,0.00,0,Wunderground v.1.15,2013-02-18 11:39:00,
2013-02-18 05:41:00,28.8,23.4,29.75,SSE,150,4.0,5.0,80,0.00,,,0.00,0,Wunderground v.1.15,2013-02-18 11:41:00,
2013-02-18 05:43:00,28.9,23.5,29.74,SE,144,4.0,6.0,80,0.00,,,0.00,0,Wunderground v.1.15,2013-02-18 11:43:00,
2013-02-18 05:45:00,28.8,23.4,29.74,ESE,115,4.0,10.0,80,0.00,,,0.00,0,Wunderground v.1.15,2013-02-18 11:45:00,
2013-02-18 05:46:00,28.9,23.5,29.74,SE,130,4.0,10.0,80,0.00,,,0.00,0,Wunderground v.1.15,2013-02-18 11:46:00,
2013-02-18 05:51:00,28.8,23.4,29.74,SSE,155,5.0,6.0,80,0.00,,,0.00,0,Wunderground v.1.15,2013-02-18 11:51:00,
2013-02-18 05:52:00,28.9,23.5,29.74,SE,138,5.0,7.0,80,0.00,,,0.00,0,Wunderground v.1.15,2013-02-18 11:52:00,
2013-02-18 05:55:00,28.9,23.5,29.74,South,178,5.0,7.0,80,0.00,,,0.00,0,Wunderground v.1.15,2013-02-18 11:55:00,
2013-02-18 05:58:00,28.9,23.8,29.74,ESE,123,4.0,8.0,81,0.00,,,0.00,0,Wunderground v.1.15,2013-02-18 11:58:00,
2013-02-18 06:01:00,28.9,23.8,29.73,SE,146,4.0,5.0,81,0.00,,,0.00,0,Wunderground v.1.15,2013-02-18 12:01:00,
2013-02-18 06:04:00,28.9,23.8,29.73,SSE,157,4.0,7.0,81,0.00,,,0.00,0,Wunderground v.1.15,2013-02-18 12:04:00,
2013-02-18 06:05:00,28.9,23.8,29.73,SE,142,4.0,7.0,81,0.00,,,0.00,0,Wunderground v.1.15,2013-02-18 12:05:00,
2013-02-18 06:07:00,28.9,23.8,29.73,SSE,167,4.0,7.0,81,0.00,,,0.00,0,Wunderground v.1.15,2013-02-18 12:07:00,
2013-02-18 06:09:00,28.9,23.8,29.73,SE,144,4.0,8.0,81,0.00,,,0.00,0,Wunderground v.1.15,2013-02-18 12:09:00,
2013-02-18 06:14:00,28.9,23.8,29.73,SSE,157,4.0,6.0,81,0.00,,,0.00,0,Wunderground v.1.15,2013-02-18 12:14:00,
2013-02-18 06:15:00,28.9,23.8,29.73,SSE,153,4.0,6.0,81,0.00,,,0.00,0,Wunderground v.1.15,2013-02-18 12:15:00,
2013-02-18 06:19:00,28.8,23.7,29.73,SE,144,3.0,6.0,81,0.00,,,0.00,0,Wunderground v.1.15,2013-02-18 12:19:00,
2013-02-18 06:22:00,28.8,23.7,29.73,SE,142,3.0,6.0,81,0.00,,,0.00,0,Wunderground v.1.15,2013-02-18 12:22:00,
2013-02-18 06:24:00,28.8,23.7,29.73,SSE,148,3.0,7.0,81,0.00,,,0.00,0,Wunderground v.1.15,2013-02-18 12:24:00,
2013-02-18 06:25:00,28.8,23.7,29.72,SSE,164,3.0,7.0,81,0.00,,,0.00,0,Wunderground v.1.15,2013-02-18 12:25:00,
2013-02-18 06:29:00,28.8,23.7,29.72,SSE,161,3.0,7.0,81,0.00,,,0.00,0,Wunderground v.1.15,2013-02-18 12:29:00,
2013-02-18 06:30:00,28.8,23.7,29.72,SSE,161,3.0,3.0,81,0.00,,,0.00,0,Wunderground v.1.15,2013-02-18 12:30:00,
2013-02-18 06:31:00,28.8,23.7,29.72,SSE,161,3.0,3.0,81,0.00,,,0.00,0,Wunderground v.1.15,2013-02-18 12:31:00,
2013-02-18 06:35:00,28.8,23.7,29.72,SSE,148,3.0,7.0,81,0.00,,,0.00,0,Wunderground v.1.15,2013-02-18 12:35:00,
2013-02-18 06:37:00,28.7,23.6,29.72,SSE,147,2.0,7.0,81,0.00,,,0.00,0,Wunderground v.1.15,2013-02-18 12:37:00,
2013-02-18 06:38:00,28.7,23.6,29.72,SE,130,3.0,7.0,81,0.00,,,0.00,0,Wunderground v.1.15,2013-02-18 12:38:00,
2013-02-18 06:40:00,28.7,23.6,29.72,South,177,3.0,3.0,81,0.00,,,0.00,0,Wunderground v.1.15,2013-02-18 12:40:00,
2013-02-18 06:44:00,28.7,23.6,29.71,South,174,3.0,5.0,81,0.00,,,0.00,0,Wunderground v.1.15,2013-02-18 12:44:00,
2013-02-18 06:45:00,28.7,23.6,29.71,South,174,3.0,5.0,81,0.00,,,0.00,0,Wunderground v.1.15,2013-02-18 12:45:00,
2013-02-18 06:48:00,28.6,23.8,29.71,South,173,3.0,5.0,82,0.00,,,0.00,0,Wunderground v.1.15,2013-02-18 12:48:00,
2013-02-18 06:53:00,28.7,23.9,29.71,SSE,161,3.0,6.0,82,0.00,,,0.00,0,Wunderground v.1.15,2013-02-18 12:53:00,
2013-02-18 06:55:00,28.7,23.9,29.71,SE,143,3.0,8.0,82,0.00,,,0.00,0,Wunderground v.1.15,2013-02-18 12:55:00,
2013-02-18 06:59:00,28.7,23.9,29.71,SSE,167,3.0,8.0,82,0.00,,,0.00,5,Wunderground v.1.15,2013-02-18 12:59:00,
2013-02-18 07:01:00,28.7,23.9,29.71,SSE,152,3.0,4.0,82,0.00,,,0.00,7,Wunderground v.1.15,2013-02-18 13:01:00,
2013-02-18 07:03:00,28.6,23.8,29.71,SSE,152,3.0,4.0,82,0.00,,,0.00,11,Wunderground v.1.15,2013-02-18 13:03:00,
2013-02-18 07:04:00,28.6,23.8,29.71,SSE,152,3.0,4.0,82,0.00,,,0.00,11,Wunderground v.1.15,2013-02-18 13:04:00,
2013-02-18 07:06:00,28.7,23.9,29.71,SE,146,3.0,6.0,82,0.00,,,0.00,12,Wunderground v.1.15,2013-02-18 13:06:00,
2013-02-18 07:08:00,28.7,23.9,29.71,SSE,159,4.0,7.0,82,0.00,,,0.00,16,Wunderground v.1.15,2013-02-18 13:08:00,
2013-02-18 07:10:00,28.7,23.9,29.71,SSE,156,4.0,5.0,82,0.00,,,0.00,18,Wunderground v.1.15,2013-02-18 13:10:00,
2013-02-18 07:15:00,28.8,24.0,29.71,SE,137,5.0,7.0,82,0.00,,,0.00,28,Wunderground v.1.15,2013-02-18 13:15:00,
2013-02-18 07:17:00,28.8,24.0,29.71,SE,142,4.0,7.0,82,0.00,,,0.00,33,Wunderground v.1.15,2013-02-18 13:17:00,
2013-02-18 07:18:00,28.9,24.1,29.71,SSE,165,5.0,8.0,82,0.00,,,0.00,37,Wunderground v.1.15,2013-02-18 13:18:00,
2013-02-18 07:20:00,29.0,24.2,29.71,SSE,154,5.0,5.0,82,0.00,,,0.00,42,Wunderground v.1.15,2013-02-18 13:20:00,
2013-02-18 07:23:00,29.1,24.3,29.71,SSE,153,4.0,5.0,82,0.00,,,0.00,51,Wunderground v.1.15,2013-02-18 13:23:00,
2013-02-18 07:25:00,29.2,24.4,29.71,SSE,153,4.0,5.0,82,0.00,,,0.00,53,Wunderground v.1.15,2013-02-18 13:25:00,
2013-02-18 07:26:00,29.2,24.4,29.71,SSE,163,4.0,5.0,82,0.00,,,0.00,54,Wunderground v.1.15,2013-02-18 13:26:00,
2013-02-18 07:30:00,29.3,24.5,29.71,SSE,162,4.0,4.0,82,0.00,,,0.00,60,Wunderground v.1.15,2013-02-18 13:30:00,
2013-02-18 07:32:00,29.3,24.5,29.71,SE,130,4.0,7.0,82,0.00,,,0.00,62,Wunderground v.1.15,2013-02-18 13:32:00,
2013-02-18 07:33:00,29.4,24.6,29.71,SSE,155,4.0,7.0,82,0.00,,,0.00,63,Wunderground v.1.15,2013-02-18 13:33:00,
2013-02-18 07:36:00,29.5,24.7,29.71,South,169,4.0,7.0,82,0.00,,,0.00,70,Wunderground v.1.15,2013-02-18 13:36:00,
2013-02-18 07:38:00,29.7,24.9,29.71,South,186,4.0,7.0,82,0.00,,,0.00,79,Wunderground v.1.15,2013-02-18 13:38:00,
2013-02-18 07:43:00,30.0,24.9,29.71,SSE,153,5.0,6.0,81,0.00,,,0.00,98,Wunderground v.1.15,2013-02-18 13:43:00,
2013-02-18 07:44:00,30.0,24.9,29.71,SSE,154,5.0,6.0,81,0.00,,,0.00,98,Wunderground v.1.15,2013-02-18 13:44:00,
2013-02-18 07:45:00,30.1,25.0,29.71,SSW,206,5.0,6.0,81,0.00,,,0.00,97,Wunderground v.1.15,2013-02-18 13:45:00,
2013-02-18 07:50:00,30.2,25.1,29.70,SSE,155,4.0,5.0,81,0.00,,,0.00,123,Wunderground v.1.15,2013-02-18 13:50:00,
2013-02-18 07:51:00,30.3,25.2,29.70,SSE,153,4.0,5.0,81,0.00,,,0.00,125,Wunderground v.1.15,2013-02-18 13:51:00,
2013-02-18 07:55:00,30.5,25.4,29.70,SSE,149,3.0,7.0,81,0.00,,,0.00,141,Wunderground v.1.15,2013-02-18 13:55:00,
2013-02-18 07:57:00,30.6,25.5,29.70,SSE,163,3.0,7.0,81,0.00,,,0.00,146,Wunderground v.1.15,2013-02-18 13:57:00,
2013-02-18 08:01:00,30.8,25.4,29.70,SSE,159,3.0,5.0,80,0.00,,,0.00,149,Wunderground v.1.15,2013-02-18 14:01:00,
2013-02-18 08:02:00,30.9,25.5,29.70,South,182,3.0,5.0,80,0.00,,,0.00,155,Wunderground v.1.15,2013-02-18 14:02:00,
2013-02-18 08:06:00,31.2,25.7,29.70,South,179,4.0,10.0,80,0.00,,,0.00,160,Wunderground v.1.15,2013-02-18 14:06:00,
2013-02-18 08:08:00,31.3,25.8,29.70,SSE,153,4.0,10.0,80,0.00,,,0.00,153,Wunderground v.1.15,2013-02-18 14:08:00,
2013-02-18 08:09:00,31.3,25.8,29.70,SSE,163,4.0,10.0,80,0.00,,,0.00,153,Wunderground v.1.15,2013-02-18 14:09:00,
2013-02-18 08:14:00,31.5,25.7,29.70,South,179,4.0,7.0,79,0.00,,,0.00,183,Wunderground v.1.15,2013-02-18 14:14:00,
2013-02-18 08:15:00,31.6,25.8,29.70,SSE,164,4.0,7.0,79,0.00,,,0.00,188,Wunderground v.1.15,2013-02-18 14:15:00,
2013-02-18 08:16:00,31.7,25.9,29.70,SSE,164,4.0,7.0,79,0.00,,,0.00,202,Wunderground v.1.15,2013-02-18 14:16:00,
2013-02-18 08:20:00,31.9,26.1,29.70,South,190,4.0,4.0,79,0.00,,,0.00,179,Wunderground v.1.15,2013-02-18 14:20:00,
2013-02-18 08:22:00,31.9,26.1,29.70,SSE,155,4.0,7.0,79,0.00,,,0.00,167,Wunderground v.1.15,2013-02-18 14:22:00,
2013-02-18 08:24:00,32.0,26.2,29.69,SE,136,5.0,8.0,79,0.00,,,0.00,153,Wunderground v.1.15,2013-02-18 14:24:00,
2013-02-18 08:27:00,32.0,26.2,29.70,South,181,6.0,8.0,79,0.00,,,0.00,165,Wunderground v.1.15,2013-02-18 14:27:00,
2013-02-18 08:29:00,32.1,26.3,29.70,SE,138,6.0,8.0,79,0.00,,,0.00,169,Wunderground v.1.15,2013-02-18 14:29:00,
2013-02-18 08:31:00,32.1,26.0,29.69,South,173,7.0,7.0,78,0.00,,,0.00,169,Wunderground v.1.15,2013-02-18 14:31:00,
2013-02-18 08:32:00,32.1,26.3,29.69,SSE,148,6.0,7.0,79,0.00,,,0.00,185,Wunderground v.1.15,2013-02-18 14:32:00,
2013-02-18 08:34:00,32.2,26.4,29.69,South,169,6.0,7.0,79,0.00,,,0.00,223,Wunderground v.1.15,2013-02-18 14:34:00,
2013-02-18 08:37:00,32.3,26.2,29.69,South,169,5.0,7.0,78,0.00,,,0.00,251,Wunderground v.1.15,2013-02-18 14:37:00,
2013-02-18 08:38:00,32.4,26.3,29.69,SE,124,4.0,7.0,78,0.00,,,0.00,255,Wunderground v.1.15,2013-02-18 14:38:00,
2013-02-18 08:39:00,32.5,26.4,29.69,South,187,4.0,7.0,78,0.00,,,0.00,250,Wunderground v.1.15,2013-02-18 14:39:00,
2013-02-18 08:43:00,32.8,26.7,29.69,SSE,163,3.0,6.0,78,0.00,,,0.00,243,Wunderground v.1.15,2013-02-18 14:43:00,
2013-02-18 08:44:00,32.8,26.7,29.69,SE,146,3.0,6.0,78,0.00,,,0.00,243,Wunderground v.1.15,2013-02-18 14:44:00,
2013-02-18 08:45:00,32.8,26.7,29.69,South,173,3.0,6.0,78,0.00,,,0.00,264,Wunderground v.1.15,2013-02-18 14:45:00,
2013-02-18 08:48:00,33.1,27.0,29.69,South,171,3.0,6.0,78,0.00,,,0.00,316,Wunderground v.1.15,2013-02-18 14:48:00,
2013-02-18 08:50:00,33.2,27.1,29.69,SSE,161,3.0,4.0,78,0.00,,,0.00,325,Wunderground v.1.15,2013-02-18 14:50:00,
2013-02-18 08:53:00,33.4,27.0,29.68,South,175,3.0,4.0,77,0.00,,,0.00,287,Wunderground v.1.15,2013-02-18 14:53:00,
2013-02-18 08:56:00,33.5,27.1,29.68,SSE,152,3.0,6.0,77,0.00,,,0.00,255,Wunderground v.1.15,2013-02-18 14:56:00,
2013-02-18 08:57:00,33.6,27.2,29.68,SSE,156,3.0,6.0,77,0.00,,,0.00,269,Wunderground v.1.15,2013-02-18 14:57:00,
2013-02-18 08:59:00,33.7,27.3,29.68,South,170,4.0,6.0,77,0.00,,,0.00,251,Wunderground v.1.15,2013-02-18 14:59:00,
2013-02-18 09:02:00,33.7,27.3,29.68,SE,142,4.0,10.0,77,0.00,,,0.00,248,Wunderground v.1.15,2013-02-18 15:02:00,
2013-02-18 09:06:00,33.9,27.4,29.68,South,175,5.0,10.0,77,0.00,,,0.00,287,Wunderground v.1.15,2013-02-18 15:06:00,
2013-02-18 09:09:00,34.1,27.6,29.68,South,177,5.0,10.0,77,0.00,,,0.00,304,Wunderground v.1.15,2013-02-18 15:09:00,
2013-02-18 09:12:00,34.3,27.5,29.67,South,172,5.0,7.0,76,0.00,,,0.00,329,Wunderground v.1.15,2013-02-18 15:12:00,
2013-02-18 09:16:00,34.5,27.7,29.67,South,186,4.0,7.0,76,0.00,,,0.00,352,Wunderground v.1.15,2013-02-18 15:16:00,
2013-02-18 09:17:00,34.5,28.0,29.67,SSE,155,4.0,10.0,77,0.00,,,0.00,325,Wunderground v.1.15,2013-02-18 15:17:00,
2013-02-18 09:21:00,34.7,27.9,29.67,SSE,163,5.0,11.0,76,0.00,,,0.00,318,Wunderground v.1.15,2013-02-18 15:21:00,
2013-02-18 09:23:00,34.8,28.0,29.67,South,186,6.0,11.0,76,0.00,,,0.00,302,Wunderground v.1.15,2013-02-18 15:23:00,
2013-02-18 09:25:00,34.8,28.0,29.68,SE,142,6.0,11.0,76,0.00,,,0.00,288,Wunderground v.1.15,2013-02-18 15:25:00,
2013-02-18 09:28:00,34.9,28.1,29.67,South,176,7.0,11.0,76,0.00,,,0.00,272,Wunderground v.1.15,2013-02-18 15:28:00,
2013-02-18 09:30:00,34.9,28.1,29.67,SSE,153,6.0,6.0,76,0.00,,,0.00,267,Wunderground v.1.15,2013-02-18 15:30:00,
2013-02-18 09:32:00,35.0,28.2,29.67,South,169,6.0,9.0,76,0.00,,,0.00,290,Wunderground v.1.15,2013-02-18 15:32:00,
2013-02-18 09:35:00,35.1,28.3,29.67,SSE,147,6.0,12.0,76,0.00,,,0.00,301,Wunderground v.1.15,2013-02-18 15:35:00,
2013-02-18 09:38:00,35.2,28.4,29.67,South,179,6.0,12.0,76,0.00,,,0.00,288,Wunderground v.1.15,2013-02-18 15:38:00,
2013-02-18 09:41:00,35.3,28.5,29.67,SSW,194,6.0,6.0,76,0.00,,,0.00,311,Wunderground v.1.15,2013-02-18 15:41:00,
2013-02-18 09:44:00,35.5,28.4,29.67,South,182,6.0,7.0,75,0.00,,,0.00,350,Wunderground v.1.15,2013-02-18 15:44:00,
2013-02-18 09:46:00,35.6,28.5,29.66,SSE,147,6.0,9.0,75,0.00,,,0.00,390,Wunderground v.1.15,2013-02-18 15:46:00,
2013-02-18 09:48:00,35.8,28.6,29.66,SSE,153,5.0,9.0,75,0.00,,,0.00,367,Wunderground v.1.15,2013-02-18 15:48:00,
2013-02-18 09:52:00,36.0,28.8,29.66,South,184,6.0,9.0,75,0.00,,,0.00,410,Wunderground v.1.15,2013-02-18 15:52:00,
2013-02-18 09:53:00,36.0,28.5,29.66,South,175,6.0,9.0,74,0.00,,,0.00,443,Wunderground v.1.15,2013-02-18 15:53:00,
2013-02-18 09:55:00,36.1,28.9,29.66,SSW,192,6.0,12.0,75,0.00,,,0.00,468,Wunderground v.1.15,2013-02-18 15:55:00,
2013-02-18 09:58:00,36.0,28.8,29.66,South,173,6.0,12.0,75,0.00,,,0.00,468,Wunderground v.1.15,2013-02-18 15:58:00,
2013-02-18 10:02:00,36.2,28.7,29.66,South,169,6.0,7.0,74,0.00,,,0.00,373,Wunderground v.1.15,2013-02-18 16:02:00,
2013-02-18 10:04:00,36.2,28.7,29.66,SSE,168,6.0,7.0,74,0.00,,,0.00,394,Wunderground v.1.15,2013-02-18 16:04:00,
2013-02-18 10:05:00,36.2,28.7,29.66,SSE,166,5.0,7.0,74,0.00,,,0.00,417,Wunderground v.1.15,2013-02-18 16:05:00,
2013-02-18 10:08:00,36.2,28.7,29.66,South,171,5.0,8.0,74,0.00,,,0.00,403,Wunderground v.1.15,2013-02-18 16:08:00,
2013-02-18 10:12:00,36.4,28.9,29.66,SSE,160,5.0,6.0,74,0.00,,,0.00,359,Wunderground v.1.15,2013-02-18 16:12:00,
2013-02-18 10:15:00,36.5,29.0,29.66,SSE,154,5.0,7.0,74,0.00,,,0.00,373,Wunderground v.1.15,2013-02-18 16:15:00,
2013-02-18 10:16:00,36.5,29.0,29.66,SE,145,5.0,14.0,74,0.00,,,0.00,364,Wunderground v.1.15,2013-02-18 16:16:00,
2013-02-18 10:17:00,36.5,29.0,29.66,SSE,161,5.0,14.0,74,0.00,,,0.00,396,Wunderground v.1.15,2013-02-18 16:17:00,
2013-02-18 10:21:00,36.7,29.2,29.66,South,176,5.0,6.0,74,0.00,,,0.00,353,Wunderground v.1.15,2013-02-18 16:21:00,
2013-02-18 10:22:00,36.7,29.2,29.66,South,182,5.0,6.0,74,0.00,,,0.00,327,Wunderground v.1.15,2013-02-18 16:22:00,
2013-02-18 10:26:00,36.9,29.4,29.66,South,181,5.0,6.0,74,0.00,,,0.00,385,Wunderground v.1.15,2013-02-18 16:26:00,
2013-02-18 10:27:00,37.0,29.5,29.66,SE,129,4.0,9.0,74,0.00,,,0.00,362,Wunderground v.1.15,2013-02-18 16:27:00,
2013-02-18 10:32:00,37.0,29.5,29.65,SSE,168,5.0,11.0,74,0.00,,,0.00,403,Wunderground v.1.15,2013-02-18 16:32:00,
2013-02-18 10:33:00,37.0,29.5,29.65,SSE,151,6.0,11.0,74,0.00,,,0.00,330,Wunderground v.1.15,2013-02-18 16:33:00,
2013-02-18 10:36:00,37.0,29.5,29.65,South,183,6.0,11.0,74,0.00,,,0.00,274,Wunderground v.1.15,2013-02-18 16:36:00,
2013-02-18 10:40:00,36.9,29.4,29.65,South,182,6.0,11.0,74,0.00,,,0.00,441,Wunderground v.1.15,2013-02-18 16:40:00,
2013-02-18 10:42:00,37.1,29.9,29.65,SSW,207,6.0,11.0,75,0.00,,,0.00,420,Wunderground v.1.15,2013-02-18 16:42:00,
2013-02-18 10:43:00,37.1,29.9,29.65,SSW,198,5.0,11.0,75,0.00,,,0.00,420,Wunderground v.1.15,2013-02-18 16:43:00,
2013-02-18 10:45:00,37.2,30.0,29.65,SSW,206,5.0,11.0,75,0.00,,,0.00,432,Wunderground v.1.15,2013-02-18 16:45:00,
2013-02-18 10:49:00,37.4,29.9,29.65,SSW,213,5.0,11.0,74,0.00,,,0.00,513,Wunderground v.1.15,2013-02-18 16:49:00,
2013-02-18 10:50:00,37.4,29.9,29.65,SSE,155,5.0,8.0,74,0.00,,,0.00,519,Wunderground v.1.15,2013-02-18 16:50:00,
2013-02-18 10:51:00,37.5,30.0,29.65,SSW,193,6.0,8.0,74,0.00,,,0.00,547,Wunderground v.1.15,2013-02-18 16:51:00,
2013-02-18 10:55:00,37.7,30.2,29.65,South,182,6.0,8.0,74,0.00,,,0.00,512,Wunderground v.1.15,2013-02-18 16:55:00,
2013-02-18 10:57:00,37.8,30.3,29.65,South,190,6.0,8.0,74,0.00,,,0.00,563,Wunderground v.1.15,2013-02-18 16:57:00,
2013-02-18 10:59:00,37.7,30.2,29.65,SSW,194,6.0,9.0,74,0.00,,,0.00,596,Wunderground v.1.15,2013-02-18 16:59:00,
2013-02-18 11:02:00,37.8,30.3,29.65,South,170,6.0,12.0,74,0.00,,,0.00,587,Wunderground v.1.15,2013-02-18 17:02:00,
2013-02-18 11:03:00,37.9,30.4,29.65,South,182,7.0,12.0,74,0.00,,,0.00,573,Wunderground v.1.15,2013-02-18 17:03:00,
2013-02-18 11:05:00,37.9,30.0,29.65,South,182,7.0,13.0,73,0.00,,,0.00,541,Wunderground v.1.15,2013-02-18 17:05:00,
2013-02-18 11:09:00,38.0,30.1,29.65,SSE,163,7.0,13.0,73,0.00,,,0.00,536,Wunderground v.1.15,2013-02-18 17:09:00,
2013-02-18 11:10:00,38.2,30.3,29.65,SSE,168,7.0,7.0,73,0.00,,,0.00,443,Wunderground v.1.15,2013-02-18 17:10:00,
2013-02-18 11:13:00,38.3,30.4,29.64,South,182,6.0,7.0,73,0.00,,,0.00,566,Wunderground v.1.15,2013-02-18 17:13:00,
2013-02-18 11:17:00,38.4,30.2,29.64,South,173,6.0,7.0,72,0.00,,,0.00,541,Wunderground v.1.15,2013-02-18 17:17:00,
2013-02-18 11:19:00,38.6,30.4,29.64,South,184,5.0,7.0,72,0.00,,,0.00,422,Wunderground v.1.15,2013-02-18 17:19:00,
2013-02-18 11:21:00,38.7,30.4,29.64,South,171,5.0,8.0,72,0.00,,,0.00,371,Wunderground v.1.15,2013-02-18 17:21:00,
2013-02-18 11:23:00,38.6,30.4,29.64,South,172,5.0,8.0,72,0.00,,,0.00,378,Wunderground v.1.15,2013-02-18 17:23:00,
2013-02-18 11:26:00,38.6,30.4,29.64,South,188,5.0,8.0,72,0.00,,,0.00,432,Wunderground v.1.15,2013-02-18 17:26:00,
2013-02-18 11:28:00,38.6,30.4,29.63,SSE,161,5.0,9.0,72,0.00,,,0.00,496,Wunderground v.1.15,2013-02-18 17:28:00,
2013-02-18 11:33:00,38.8,30.5,29.63,South,187,5.0,11.0,72,0.00,,,0.00,432,Wunderground v.1.15,2013-02-18 17:33:00,
2013-02-18 11:34:00,38.7,30.4,29.63,SSW,213,5.0,11.0,72,0.00,,,0.00,401,Wunderground v.1.15,2013-02-18 17:34:00,
2013-02-18 11:40:00,38.7,30.8,29.63,South,182,5.0,5.0,73,0.00,,,0.00,362,Wunderground v.1.15,2013-02-18 17:40:00,
2013-02-18 11:41:00,38.7,30.8,29.63,SSW,199,5.0,5.0,73,0.00,,,0.00,371,Wunderground v.1.15,2013-02-18 17:41:00,
2013-02-18 11:42:00,38.6,30.7,29.63,South,169,5.0,5.0,73,0.00,,,0.00,380,Wunderground v.1.15,2013-02-18 17:42:00,
2013-02-18 11:46:00,38.8,30.5,29.63,SSW,197,4.0,5.0,72,0.00,,,0.00,396,Wunderground v.1.15,2013-02-18 17:46:00,
2013-02-18 11:49:00,38.9,30.6,29.63,South,177,3.0,5.0,72,0.00,,,0.00,357,Wunderground v.1.15,2013-02-18 17:49:00,
2013-02-18 11:50:00,38.9,30.6,29.62,South,177,3.0,3.0,72,0.00,,,0.00,362,Wunderground v.1.15,2013-02-18 17:50:00,
2013-02-18 11:53:00,39.1,30.8,29.62,South,170,3.0,4.0,72,0.00,,,0.00,369,Wunderground v.1.15,2013-02-18 17:53:00,
2013-02-18 11:55:00,39.1,30.8,29.62,South,171,2.0,4.0,72,0.00,,,0.00,320,Wunderground v.1.15,2013-02-18 17:55:00,
2013-02-18 11:58:00,39.1,30.8,29.62,SSW,195,2.0,4.0,72,0.00,,,0.00,513,Wunderground v.1.15,2013-02-18 17:58:00,
2013-02-18 11:59:00,39.2,30.9,29.62,SSW,196,2.0,4.0,72,0.00,,,0.00,517,Wunderground v.1.15,2013-02-18 17:59:00,
2013-02-18 12:04:00,39.1,30.8,29.61,SSW,196,3.0,7.0,72,0.00,,,0.00,554,Wunderground v.1.15,2013-02-18 18:04:00,
2013-02-18 12:06:00,39.2,30.9,29.61,SSW,209,4.0,7.0,72,0.00,,,0.00,327,Wunderground v.1.15,2013-02-18 18:06:00,
2013-02-18 12:11:00,39.1,30.8,29.61,SW,214,4.0,6.0,72,0.00,,,0.00,313,Wunderground v.1.15,2013-02-18 18:11:00,
2013-02-18 12:12:00,39.1,30.8,29.61,South,185,4.0,6.0,72,0.00,,,0.00,322,Wunderground v.1.15,2013-02-18 18:12:00,
2013-02-18 12:14:00,39.1,30.8,29.61,SSW,204,4.0,6.0,72,0.00,,,0.00,346,Wunderground v.1.15,2013-02-18 18:14:00,
2013-02-18 12:18:00,39.1,30.8,29.61,South,187,4.0,6.0,72,0.00,,,0.00,352,Wunderground v.1.15,2013-02-18 18:18:00,
2013-02-18 12:19:00,39.1,30.8,29.61,South,188,4.0,6.0,72,0.00,,,0.00,352,Wunderground v.1.15,2013-02-18 18:19:00,
2013-02-18 12:24:00,39.3,32.4,29.61,SSW,205,4.0,7.0,76,0.00,,,0.00,376,Wunderground v.1.15,2013-02-18 18:24:00,
2013-02-18 12:25:00,39.3,31.0,29.61,SSW,194,5.0,7.0,72,0.00,,,0.00,359,Wunderground v.1.15,2013-02-18 18:25:00,
2013-02-18 12:26:00,39.3,31.0,29.61,SSW,207,4.0,7.0,72,0.00,,,0.00,348,Wunderground v.1.15,2013-02-18 18:26:00,
2013-02-18 12:30:00,39.3,31.0,29.61,SW,227,4.0,5.0,72,0.00,,,0.00,359,Wunderground v.1.15,2013-02-18 18:30:00,
2013-02-18 12:31:00,39.3,31.0,29.61,SW,219,4.0,6.0,72,0.00,,,0.00,383,Wunderground v.1.15,2013-02-18 18:31:00,
2013-02-18 12:32:00,39.4,31.1,29.61,SW,220,4.0,6.0,72,0.00,,,0.00,401,Wunderground v.1.15,2013-02-18 18:32:00,
2013-02-18 12:37:00,39.7,31.4,29.61,SSW,203,4.0,7.0,72,0.00,,,0.00,443,Wunderground v.1.15,2013-02-18 18:37:00,
2013-02-18 12:38:00,39.8,31.5,29.61,SSW,198,4.0,7.0,72,0.00,,,0.00,383,Wunderground v.1.15,2013-02-18 18:38:00,
2013-02-18 12:42:00,39.8,31.2,29.61,SW,214,4.0,8.0,71,0.00,,,0.00,364,Wunderground v.1.15,2013-02-18 18:42:00,
2013-02-18 12:44:00,39.8,31.2,29.61,SW,217,5.0,9.0,71,0.00,,,0.00,350,Wunderground v.1.15,2013-02-18 18:44:00,
2013-02-18 12:48:00,39.6,31.0,29.61,SSW,209,6.0,9.0,71,0.00,,,0.00,362,Wunderground v.1.15,2013-02-18 18:48:00,
2013-02-18 12:49:00,39.6,31.3,29.61,SSW,200,6.0,9.0,72,0.00,,,0.00,376,Wunderground v.1.15,2013-02-18 18:49:00,
2013-02-18 12:54:00,39.7,31.4,29.60,SSW,211,6.0,6.0,72,0.00,,,0.00,431,Wunderground v.1.15,2013-02-18 18:54:00,
2013-02-18 12:56:00,39.8,31.5,29.60,South,190,5.0,6.0,72,0.00,,,0.00,445,Wunderground v.1.15,2013-02-18 18:56:00,
2013-02-18 12:59:00,39.8,31.2,29.60,SSW,198,4.0,6.0,71,0.00,,,0.00,468,Wunderground v.1.15,2013-02-18 18:59:00,
2013-02-18 13:00:00,39.8,31.2,29.60,South,173,4.0,6.0,71,0.00,,,0.00,471,Wunderground v.1.15,2013-02-18 19:00:00,
2013-02-18 13:05:00,39.9,31.3,29.59,SSW,209,4.0,8.0,71,0.00,,,0.00,366,Wunderground v.1.15,2013-02-18 19:05:00,
2013-02-18 13:06:00,39.9,31.3,29.59,SW,215,5.0,8.0,71,0.00,,,0.00,366,Wunderground v.1.15,2013-02-18 19:06:00,
2013-02-18 13:07:00,39.8,31.2,29.59,SW,217,5.0,8.0,71,0.00,,,0.00,381,Wunderground v.1.15,2013-02-18 19:07:00,
2013-02-18 13:12:00,39.9,31.3,29.60,SW,221,6.0,9.0,71,0.00,,,0.00,376,Wunderground v.1.15,2013-02-18 19:12:00,
2013-02-18 13:14:00,39.9,31.6,29.59,SW,214,6.0,9.0,72,0.00,,,0.00,422,Wunderground v.1.15,2013-02-18 19:14:00,
2013-02-18 13:15:00,39.9,31.3,29.59,SW,217,6.0,9.0,71,0.00,,,0.00,353,Wunderground v.1.15,2013-02-18 19:15:00,
2013-02-18 13:20:00,40.0,31.4,29.59,SSW,213,6.0,6.0,71,0.00,,,0.00,329,Wunderground v.1.15,2013-02-18 19:20:00,
2013-02-18 13:21:00,40.0,31.4,29.59,SW,217,6.0,8.0,71,0.00,,,0.00,396,Wunderground v.1.15,2013-02-18 19:21:00,
2013-02-18 13:27:00,40.2,31.5,29.59,SW,217,7.0,9.0,71,0.00,,,0.00,527,Wunderground v.1.15,2013-02-18 19:27:00,
2013-02-18 13:29:00,40.2,31.5,29.59,SW,221,7.0,9.0,71,0.00,,,0.00,471,Wunderground v.1.15,2013-02-18 19:29:00,
2013-02-18 13:34:00,40.0,31.4,29.59,South,184,6.0,8.0,71,0.00,,,0.00,404,Wunderground v.1.15,2013-02-18 19:34:00,
2013-02-18 13:36:00,40.0,31.7,29.59,SSW,211,6.0,8.0,72,0.00,,,0.00,397,Wunderground v.1.15,2013-02-18 19:36:00,
2013-02-18 13:37:00,40.0,31.7,29.59,SSW,198,6.0,8.0,72,0.00,,,0.00,364,Wunderground v.1.15,2013-02-18 19:37:00,
2013-02-18 13:41:00,40.1,31.4,29.59,SSW,213,5.0,10.0,71,0.00,,,0.00,443,Wunderground v.1.15,2013-02-18 19:41:00,
2013-02-18 13:43:00,40.2,31.5,29.59,SSW,213,5.0,10.0,71,0.00,,,0.00,432,Wunderground v.1.15,2013-02-18 19:43:00,
2013-02-18 13:46:00,40.3,31.6,29.59,SW,231,6.0,10.0,71,0.00,,,0.00,475,Wunderground v.1.15,2013-02-18 19:46:00,
2013-02-18 13:47:00,40.3,31.6,29.59,SSW,209,6.0,10.0,71,0.00,,,0.00,464,Wunderground v.1.15,2013-02-18 19:47:00,
2013-02-18 13:48:00,40.4,31.7,29.59,SSW,209,6.0,10.0,71,0.00,,,0.00,490,Wunderground v.1.15,2013-02-18 19:48:00,
2013-02-18 13:51:00,40.5,31.8,29.59,SSW,213,6.0,6.0,71,0.00,,,0.00,452,Wunderground v.1.15,2013-02-18 19:51:00,
2013-02-18 13:53:00,40.6,31.9,29.59,SSW,199,5.0,7.0,71,0.00,,,0.00,471,Wunderground v.1.15,2013-02-18 19:53:00,
2013-02-18 13:54:00,40.6,31.9,29.59,SSW,206,5.0,7.0,71,0.00,,,0.00,471,Wunderground v.1.15,2013-02-18 19:54:00,
2013-02-18 13:56:00,40.7,31.7,29.59,SW,216,5.0,10.0,70,0.00,,,0.00,504,Wunderground v.1.15,2013-02-18 19:56:00,
2013-02-18 13:59:00,40.8,31.8,29.59,SSW,206,6.0,10.0,70,0.00,,,0.00,439,Wunderground v.1.15,2013-02-18 19:59:00,
2013-02-18 14:02:00,40.8,31.8,29.59,SSW,211,6.0,6.0,70,0.00,,,0.00,417,Wunderground v.1.15,2013-02-18 20:02:00,
2013-02-18 14:04:00,40.9,31.9,29.60,SSW,197,6.0,7.0,70,0.00,,,0.00,468,Wunderground v.1.15,2013-02-18 20:04:00,
2013-02-18 14:09:00,40.6,31.6,29.60,SSW,211,5.0,7.0,70,0.00,,,0.00,285,Wunderground v.1.15,2013-02-18 20:09:00,
2013-02-18 14:10:00,40.6,31.6,29.60,South,184,5.0,5.0,70,0.00,,,0.00,274,Wunderground v.1.15,2013-02-18 20:10:00,
2013-02-18 14:14:00,40.4,31.7,29.60,SSW,211,7.0,9.0,71,0.00,,,0.00,221,Wunderground v.1.15,2013-02-18 20:14:00,
2013-02-18 14:18:00,40.3,31.6,29.61,SSW,194,7.0,9.0,71,0.00,,,0.00,172,Wunderground v.1.15,2013-02-18 20:18:00,
2013-02-18 14:19:00,40.3,31.6,29.61,South,187,7.0,9.0,71,0.00,,,0.00,169,Wunderground v.1.15,2013-02-18 20:19:00,
2013-02-18 14:24:00,40.2,31.5,29.61,SW,233,5.0,8.0,71,0.00,,,0.00,132,Wunderground v.1.15,2013-02-18 20:24:00,
2013-02-18 14:25:00,40.2,31.5,29.61,SW,231,5.0,8.0,71,0.00,,,0.00,127,Wunderground v.1.15,2013-02-18 20:25:00,
2013-02-18 14:29:00,40.0,31.7,29.61,WSW,246,4.0,8.0,72,0.00,,,0.00,162,Wunderground v.1.15,2013-02-18 20:29:00,
2013-02-18 14:32:00,40.0,31.4,29.60,SW,227,4.0,7.0,71,0.00,,,0.00,153,Wunderground v.1.15,2013-02-18 20:32:00,
2013-02-18 14:35:00,40.0,31.4,29.60,SSW,209,5.0,9.0,71,0.00,,,0.00,202,Wunderground v.1.15,2013-02-18 20:35:00,
2013-02-18 14:37:00,40.0,31.7,29.60,WSW,238,5.0,9.0,72,0.00,,,0.00,232,Wunderground v.1.15,2013-02-18 20:37:00,
2013-02-18 14:40:00,39.9,31.6,29.59,SW,219,6.0,8.0,72,0.00,,,0.00,209,Wunderground v.1.15,2013-02-18 20:40:00,
2013-02-18 14:42:00,39.9,31.6,29.60,SW,234,6.0,8.0,72,0.00,,,0.00,185,Wunderground v.1.15,2013-02-18 20:42:00,
2013-02-18 14:45:00,39.5,31.6,29.60,WSW,239,5.0,8.0,73,0.00,,,0.00,139,Wunderground v.1.15,2013-02-18 20:45:00,
2013-02-18 14:47:00,39.3,31.4,29.59,West,261,5.0,8.0,73,0.00,,,0.00,128,Wunderground v.1.15,2013-02-18 20:47:00,
2013-02-18 14:51:00,38.9,31.0,29.59,West,279,4.0,4.0,73,0.00,,,0.00,125,Wunderground v.1.15,2013-02-18 20:51:00,
2013-02-18 14:53:00,38.8,31.2,29.59,West,261,3.0,4.0,74,0.00,,,0.00,111,Wunderground v.1.15,2013-02-18 20:53:00,
2013-02-18 14:56:00,38.7,31.1,29.59,WSW,252,3.0,5.0,74,0.00,,,0.00,111,Wunderground v.1.15,2013-02-18 20:56:00,
2013-02-18 14:59:00,38.6,31.0,29.59,WSW,242,3.0,5.0,74,0.00,,,0.00,100,Wunderground v.1.15,2013-02-18 20:59:00,
2013-02-18 15:02:00,38.6,31.4,29.60,SW,234,3.0,6.0,75,0.00,,,0.00,62,Wunderground v.1.15,2013-02-18 21:02:00,
2013-02-18 15:03:00,38.6,31.0,29.60,WSW,246,4.0,6.0,74,0.00,,,0.00,65,Wunderground v.1.15,2013-02-18 21:03:00,
2013-02-18 15:06:00,38.7,31.1,29.60,SW,226,4.0,6.0,74,0.00,,,0.00,77,Wunderground v.1.15,2013-02-18 21:06:00,
2013-02-18 15:08:00,38.7,31.1,29.60,SW,226,4.0,6.0,74,0.00,,,0.00,79,Wunderground v.1.15,2013-02-18 21:08:00,
2013-02-18 15:10:00,38.8,31.2,29.60,SW,226,4.0,4.0,74,0.00,,,0.00,67,Wunderground v.1.15,2013-02-18 21:10:00,
2013-02-18 15:12:00,38.9,31.3,29.60,SW,226,3.0,4.0,74,0.00,,,0.00,58,Wunderground v.1.15,2013-02-18 21:12:00,
2013-02-18 15:17:00,38.9,31.3,29.60,WSW,241,2.0,6.0,74,0.00,,,0.00,62,Wunderground v.1.15,2013-02-18 21:17:00,
2013-02-18 15:18:00,38.8,31.2,29.60,WSW,241,2.0,6.0,74,0.00,,,0.00,56,Wunderground v.1.15,2013-02-18 21:18:00,
2013-02-18 15:19:00,38.8,31.2,29.60,SW,229,2.0,8.0,74,0.00,,,0.00,51,Wunderground v.1.15,2013-02-18 21:19:00,
2013-02-18 15:23:00,38.8,31.2,29.61,West,268,3.0,4.0,74,0.00,,,0.00,35,Wunderground v.1.15,2013-02-18 21:23:00,
2013-02-18 15:24:00,38.8,31.2,29.61,SW,222,4.0,7.0,74,0.00,,,0.00,33,Wunderground v.1.15,2013-02-18 21:24:00,
2013-02-18 15:28:00,38.7,31.1,29.61,SW,228,4.0,7.0,74,0.00,,,0.00,32,Wunderground v.1.15,2013-02-18 21:28:00,
2013-02-18 15:29:00,38.7,31.1,29.61,SW,229,4.0,7.0,74,0.00,,,0.00,32,Wunderground v.1.15,2013-02-18 21:29:00,
2013-02-18 15:34:00,38.2,31.3,29.61,WSW,240,3.0,4.0,76,0.00,,,0.00,33,Wunderground v.1.15,2013-02-18 21:34:00,
2013-02-18 15:36:00,38.0,31.1,29.61,SW,223,2.0,4.0,76,0.00,,,0.00,28,Wunderground v.1.15,2013-02-18 21:36:00,
2013-02-18 15:41:00,37.9,31.0,29.61,SW,234,2.0,3.0,76,0.00,,,0.00,39,Wunderground v.1.15,2013-02-18 21:41:00,
2013-02-18 15:42:00,37.9,31.0,29.61,WSW,255,2.0,3.0,76,0.00,,,0.00,40,Wunderground v.1.15,2013-02-18 21:42:00,
2013-02-18 15:43:00,37.8,30.9,29.61,WSW,239,2.0,4.0,76,0.00,,,0.00,42,Wunderground v.1.15,2013-02-18 21:43:00,
2013-02-18 15:48:00,37.7,31.1,29.60,WSW,252,2.0,4.0,77,0.00,,,0.00,60,Wunderground v.1.15,2013-02-18 21:48:00,
2013-02-18 15:50:00,37.6,31.0,29.60,WSW,238,2.0,5.0,77,0.00,,,0.00,54,Wunderground v.1.15,2013-02-18 21:50:00,
2013-02-18 15:52:00,37.4,31.2,29.60,WSW,238,2.0,5.0,78,0.00,,,0.00,76,Wunderground v.1.15,2013-02-18 21:52:00,
2013-02-18 15:55:00,37.3,31.4,29.59,WSW,238,2.0,5.0,79,0.00,,,0.00,84,Wunderground v.1.15,2013-02-18 21:55:00,
2013-02-18 15:57:00,37.2,31.3,29.59,WSW,238,2.0,5.0,79,0.00,,,0.00,83,Wunderground v.1.15,2013-02-18 21:57:00,
2013-02-18 16:02:00,36.8,31.2,29.60,SW,236,1.0,1.0,80,0.00,,,0.00,58,Wunderground v.1.15,2013-02-18 22:02:00,
2013-02-18 16:03:00,36.8,31.5,29.60,SW,236,1.0,1.0,81,0.00,,,0.00,53,Wunderground v.1.15,2013-02-18 22:03:00,
2013-02-18 16:04:00,36.7,31.4,29.60,SW,236,1.0,1.0,81,0.00,,,0.00,49,Wunderground v.1.15,2013-02-18 22:04:00,
2013-02-18 16:09:00,36.4,31.4,29.60,WSW,242,2.0,4.0,82,0.00,,,0.00,53,Wunderground v.1.15,2013-02-18 22:09:00,
2013-02-18 16:10:00,36.4,31.4,29.60,SW,232,2.0,4.0,82,0.00,,,0.00,51,Wunderground v.1.15,2013-02-18 22:10:00,
2013-02-18 16:11:00,36.3,31.3,29.60,WSW,238,2.0,4.0,82,0.00,,,0.00,47,Wunderground v.1.15,2013-02-18 22:11:00,
2013-02-18 16:16:00,36.1,31.4,29.61,SW,229,3.0,5.0,83,0.00,,,0.00,32,Wunderground v.1.15,2013-02-18 22:16:00,
2013-02-18 16:17:00,36.1,31.4,29.61,WSW,237,3.0,8.0,83,0.00,,,0.00,30,Wunderground v.1.15,2013-02-18 22:17:00,
2013-02-18 16:18:00,36.0,31.3,29.61,SW,227,3.0,8.0,83,0.00,,,0.00,30,Wunderground v.1.15,2013-02-18 22:18:00,
2013-02-18 16:22:00,35.9,31.5,29.61,SW,230,2.0,3.0,84,0.00,,,0.00,33,Wunderground v.1.15,2013-02-18 22:22:00,
2013-02-18 16:23:00,35.8,31.4,29.60,SW,230,2.0,3.0,84,0.00,,,0.00,35,Wunderground v.1.15,2013-02-18 22:23:00,
2013-02-18 16:25:00,35.7,31.3,29.61,WSW,248,2.0,6.0,84,0.00,,,0.00,39,Wunderground v.1.15,2013-02-18 22:25:00,
2013-02-18 16:28:00,35.6,31.5,29.60,WSW,241,2.0,6.0,85,0.00,,,0.00,42,Wunderground v.1.15,2013-02-18 22:28:00,
2013-02-18 16:33:00,35.4,31.6,29.60,WSW,241,1.0,1.0,86,0.00,,,0.00,40,Wunderground v.1.15,2013-02-18 22:33:00,
2013-02-18 16:35:00,35.3,31.8,29.60,WSW,241,1.0,1.0,87,0.00,,,0.00,39,Wunderground v.1.15,2013-02-18 22:35:00,
2013-02-18 16:39:00,35.1,31.9,29.60,WSW,241,0.0,1.0,88,0.00,,,0.00,37,Wunderground v.1.15,2013-02-18 22:39:00,
2013-02-18 16:41:00,35.1,31.9,29.60,WSW,241,0.0,2.0,88,0.00,,,0.00,37,Wunderground v.1.15,2013-02-18 22:41:00,
2013-02-18 16:44:00,35.0,31.8,29.60,WSW,241,0.0,2.0,88,0.00,,,0.00,35,Wunderground v.1.15,2013-02-18 22:44:00,
2013-02-18 16:45:00,35.0,31.8,29.60,WSW,241,0.0,2.0,88,0.00,,,0.00,35,Wunderground v.1.15,2013-02-18 22:45:00,
2013-02-18 16:50:00,35.1,32.2,29.60,West,261,1.0,2.0,89,0.00,,,0.00,32,Wunderground v.1.15,2013-02-18 22:50:00,
2013-02-18 16:51:00,35.1,32.2,29.60,West,265,1.0,2.0,89,0.00,,,0.00,32,Wunderground v.1.15,2013-02-18 22:51:00,
2013-02-18 16:54:00,35.1,32.2,29.60,NW,310,2.0,2.0,89,0.00,,,0.00,23,Wunderground v.1.15,2013-02-18 22:54:00,
2013-02-18 16:56:00,35.1,32.5,29.60,WNW,286,2.0,3.0,90,0.00,,,0.00,19,Wunderground v.1.15,2013-02-18 22:56:00,
2013-02-18 16:59:00,35.1,32.5,29.60,NW,319,2.0,4.0,90,0.00,,,0.00,14,Wunderground v.1.15,2013-02-18 22:59:00,
2013-02-18 17:03:00,35.0,32.4,29.60,WSW,248,1.0,2.0,90,0.00,,,0.00,12,Wunderground v.1.15,2013-02-18 23:03:00,
2013-02-18 17:04:00,35.0,32.4,29.60,WSW,248,1.0,2.0,90,0.00,,,0.00,11,Wunderground v.1.15,2013-02-18 23:04:00,
2013-02-18 17:06:00,35.0,32.4,29.60,WNW,296,2.0,4.0,90,0.00,,,0.00,11,Wunderground v.1.15,2013-02-18 23:06:00,
2013-02-18 17:10:00,34.9,32.3,29.60,West,277,1.0,6.0,90,0.00,,,0.00,5,Wunderground v.1.15,2013-02-18 23:10:00,
2013-02-18 17:11:00,34.9,32.3,29.60,West,260,2.0,6.0,90,0.00,,,0.00,5,Wunderground v.1.15,2013-02-18 23:11:00,
2013-02-18 17:16:00,34.9,32.3,29.60,West,279,2.0,6.0,90,0.00,,,0.00,0,Wunderground v.1.15,2013-02-18 23:16:00,
2013-02-18 17:17:00,34.8,32.2,29.60,West,267,2.0,6.0,90,0.00,,,0.00,0,Wunderground v.1.15,2013-02-18 23:17:00,
2013-02-18 17:19:00,34.8,32.2,29.60,WNW,286,2.0,6.0,90,0.00,,,0.00,0,Wunderground v.1.15,2013-02-18 23:19:00,
2013-02-18 17:22:00,34.8,32.2,29.60,WNW,286,1.0,2.0,90,0.00,,,0.00,0,Wunderground v.1.15,2013-02-18 23:22:00,
2013-02-18 17:24:00,34.7,32.1,29.60,WSW,254,1.0,2.0,90,0.00,,,0.00,0,Wunderground v.1.15,2013-02-18 23:24:00,
2013-02-18 17:27:00,34.6,32.0,29.61,NW,311,1.0,3.0,90,0.00,,,0.00,0,Wunderground v.1.15,2013-02-18 23:27:00,
2013-02-18 17:30:00,34.6,32.0,29.61,SSW,211,1.0,2.0,90,0.00,,,0.00,0,Wunderground v.1.15,2013-02-18 23:30:00,
2013-02-18 17:32:00,34.4,31.8,29.61,WSW,240,2.0,4.0,90,0.00,,,0.00,0,Wunderground v.1.15,2013-02-18 23:32:00,
2013-02-18 17:35:00,34.1,31.5,29.62,WSW,240,3.0,8.0,90,0.00,,,0.00,0,Wunderground v.1.15,2013-02-18 23:35:00,
2013-02-18 17:39:00,33.8,31.2,29.62,WSW,255,4.0,8.0,90,0.00,,,0.00,0,Wunderground v.1.15,2013-02-18 23:39:00,
2013-02-18 17:40:00,33.7,31.1,29.62,WSW,237,4.0,4.0,90,0.00,,,0.00,0,Wunderground v.1.15,2013-02-18 23:40:00,
2013-02-18 17:41:00,33.6,31.0,29.62,WNW,302,4.0,4.0,90,0.00,,,0.00,0,Wunderground v.1.15,2013-02-18 23:41:00,
2013-02-18 17:45:00,33.4,30.8,29.62,NNW,334,3.0,10.0,90,0.00,,,0.00,0,Wunderground v.1.15,2013-02-18 23:45:00,
2013-02-18 17:47:00,33.2,30.6,29.62,NW,308,4.0,10.0,90,0.00,,,0.00,0,Wunderground v.1.15,2013-02-18 23:47:00,
2013-02-18 17:51:00,32.8,30.2,29.62,West,264,4.0,5.0,90,0.00,,,0.00,0,Wunderground v.1.15,2013-02-18 23:51:00,
2013-02-18 17:52:00,32.6,30.0,29.62,SW,221,4.0,9.0,90,0.00,,,0.00,0,Wunderground v.1.15,2013-02-18 23:52:00,
2013-02-18 17:53:00,32.5,29.9,29.63,SW,231,5.0,10.0,90,0.00,,,0.00,0,Wunderground v.1.15,2013-02-18 23:53:00,
2013-02-18 17:57:00,31.9,29.3,29.63,SSW,209,7.0,15.0,90,0.00,,,0.00,0,Wunderground v.1.15,2013-02-18 23:57:00,
2013-02-18 17:58:00,31.8,28.9,29.63,SW,231,8.0,15.0,89,0.00,,,0.00,0,Wunderground v.1.15,2013-02-18 23:58:00,
2013-02-18 18:03:00,31.2,28.3,29.63,SW,224,10.0,10.0,89,0.00,,,0.00,0,Wunderground v.1.15,2013-02-19 00:03:00,
2013-02-18 18:05:00,31.1,28.0,29.63,SSW,211,10.0,11.0,88,0.00,,,0.00,0,Wunderground v.1.15,2013-02-19 00:05:00,
2013-02-18 18:08:00,30.8,27.7,29.63,SW,225,9.0,11.0,88,0.00,,,0.00,0,Wunderground v.1.15,2013-02-19 00:08:00,
2013-02-18 18:12:00,30.6,27.5,29.63,SW,223,9.0,16.0,88,0.00,,,0.00,0,Wunderground v.1.15,2013-02-19 00:12:00,
2013-02-18 18:15:00,30.5,27.4,29.64,West,263,8.0,16.0,88,0.00,,,0.00,0,Wunderground v.1.15,2013-02-19 00:15:00,
2013-02-18 18:19:00,30.4,27.3,29.64,NW,319,7.0,16.0,88,0.00,,,0.00,0,Wunderground v.1.15,2013-02-19 00:19:00,
2013-02-18 18:20:00,30.3,27.2,29.64,WNW,284,7.0,7.0,88,0.00,,,0.00,0,Wunderground v.1.15,2013-02-19 00:20:00,
2013-02-18 18:23:00,30.3,27.2,29.64,West,273,4.0,7.0,88,0.00,,,0.00,0,Wunderground v.1.15,2013-02-19 00:23:00,
2013-02-18 18:26:00,30.2,27.1,29.64,WSW,248,4.0,9.0,88,0.00,,,0.00,0,Wunderground v.1.15,2013-02-19 00:26:00,
2013-02-18 18:27:00,30.2,27.1,29.64,NNW,340,4.0,9.0,88,0.00,,,0.00,0,Wunderground v.1.15,2013-02-19 00:27:00,
2013-02-18 18:29:00,30.1,27.0,29.64,West,273,3.0,9.0,88,0.00,,,0.00,0,Wunderground v.1.15,2013-02-19 00:29:00,
2013-02-18 18:32:00,30.0,26.9,29.64,West,259,3.0,3.0,88,0.00,,,0.00,0,Wunderground v.1.15,2013-02-19 00:32:00,
2013-02-18 18:34:00,29.9,26.8,29.64,WSW,250,3.0,3.0,88,0.00,,,0.00,0,Wunderground v.1.15,2013-02-19 00:34:00,
2013-02-18 18:37:00,29.7,26.6,29.64,West,275,2.0,5.0,88,0.00,,,0.00,0,Wunderground v.1.15,2013-02-19 00:37:00,
2013-02-18 18:39:00,29.6,26.5,29.65,West,273,3.0,6.0,88,0.00,,,0.00,0,Wunderground v.1.15,2013-02-19 00:39:00,
2013-02-18 18:44:00,29.4,26.3,29.65,WNW,287,3.0,5.0,88,0.00,,,0.00,0,Wunderground v.1.15,2013-02-19 00:44:00,
2013-02-18 18:47:00,29.3,26.2,29.65,WNW,286,3.0,5.0,88,0.00,,,0.00,0,Wunderground v.1.15,2013-02-19 00:47:00,
2013-02-18 18:51:00,29.2,25.8,29.64,West,264,3.0,6.0,87,0.00,,,0.00,0,Wunderground v.1.15,2013-02-19 00:51:00,
2013-02-18 18:52:00,29.2,25.8,29.64,SW,229,3.0,6.0,87,0.00,,,0.00,0,Wunderground v.1.15,2013-02-19 00:52:00,
2013-02-18 18:56:00,29.0,25.6,29.64,WSW,240,4.0,7.0,87,0.00,,,0.00,0,Wunderground v.1.15,2013-02-19 00:56:00,
2013-02-18 18:57:00,29.0,25.6,29.64,West,273,4.0,7.0,87,0.00,,,0.00,0,Wunderground v.1.15,2013-02-19 00:57:00,
2013-02-18 19:01:00,28.9,25.5,29.65,SW,232,4.0,7.0,87,0.00,,,0.00,0,Wunderground v.1.15,2013-02-19 01:01:00,
2013-02-18 19:02:00,28.9,25.5,29.65,WSW,238,4.0,9.0,87,0.00,,,0.00,0,Wunderground v.1.15,2013-02-19 01:02:00,
2013-02-18 19:06:00,28.7,25.3,29.64,SW,232,4.0,9.0,87,0.00,,,0.00,0,Wunderground v.1.15,2013-02-19 01:06:00,
2013-02-18 19:08:00,28.7,25.3,29.64,WSW,249,4.0,9.0,87,0.00,,,0.00,0,Wunderground v.1.15,2013-02-19 01:08:00,
2013-02-18 19:11:00,28.6,25.2,29.64,West,262,5.0,6.0,87,0.00,,,0.00,0,Wunderground v.1.15,2013-02-19 01:11:00,
2013-02-18 19:15:00,28.5,25.1,29.64,WNW,299,4.0,6.0,87,0.00,,,0.00,0,Wunderground v.1.15,2013-02-19 01:15:00,
2013-02-18 19:17:00,28.5,24.8,29.64,WNW,286,4.0,6.0,86,0.00,,,0.00,0,Wunderground v.1.15,2013-02-19 01:17:00,
2013-02-18 19:18:00,28.4,24.7,29.64,WSW,256,4.0,7.0,86,0.00,,,0.00,0,Wunderground v.1.15,2013-02-19 01:18:00,
2013-02-18 19:21:00,28.3,24.6,29.64,NW,312,4.0,4.0,86,0.00,,,0.00,0,Wunderground v.1.15,2013-02-19 01:21:00,
2013-02-18 19:22:00,28.2,24.6,29.64,West,261,3.0,5.0,86,0.00,,,0.00,0,Wunderground v.1.15,2013-02-19 01:22:00,
2013-02-18 19:26:00,28.0,24.1,29.64,North,360,4.0,8.0,85,0.00,,,0.00,0,Wunderground v.1.15,2013-02-19 01:26:00,
2013-02-18 19:30:00,27.7,23.5,29.64,SW,218,5.0,5.0,84,0.00,,,0.00,0,Wunderground v.1.15,2013-02-19 01:30:00,
2013-02-18 19:31:00,27.6,23.4,29.64,SW,230,5.0,7.0,84,0.00,,,0.00,0,Wunderground v.1.15,2013-02-19 01:31:00,
2013-02-18 19:34:00,27.2,23.0,29.64,West,268,6.0,10.0,84,0.00,,,0.00,0,Wunderground v.1.15,2013-02-19 01:34:00,
2013-02-18 19:36:00,27.0,22.8,29.64,West,273,7.0,10.0,84,0.00,,,0.00,0,Wunderground v.1.15,2013-02-19 01:36:00,
2013-02-18 19:37:00,26.9,22.4,29.64,NW,305,7.0,10.0,83,0.00,,,0.00,0,Wunderground v.1.15,2013-02-19 01:37:00,
2013-02-18 19:42:00,26.5,22.3,29.64,NNW,327,5.0,11.0,84,0.00,,,0.00,0,Wunderground v.1.15,2013-02-19 01:42:00,
2013-02-18 19:43:00,26.4,22.2,29.64,WNW,303,5.0,11.0,84,0.00,,,0.00,0,Wunderground v.1.15,2013-02-19 01:43:00,
2013-02-18 19:45:00,26.3,22.1,29.64,WSW,249,4.0,11.0,84,0.00,,,0.00,0,Wunderground v.1.15,2013-02-19 01:45:00,
2013-02-18 19:48:00,26.1,21.9,29.64,SW,229,3.0,11.0,84,0.00,,,0.00,0,Wunderground v.1.15,2013-02-19 01:48:00,
2013-02-18 19:51:00,26.0,21.8,29.64,East,98,3.0,3.0,84,0.00,,,0.00,0,Wunderground v.1.15,2013-02-19 01:51:00,
2013-02-18 19:52:00,25.9,21.7,29.64,SW,217,3.0,3.0,84,0.00,,,0.00,0,Wunderground v.1.15,2013-02-19 01:52:00,
2013-02-18 19:57:00,25.7,21.5,29.64,West,259,3.0,5.0,84,0.00,,,0.00,0,Wunderground v.1.15,2013-02-19 01:57:00,
2013-02-18 19:58:00,25.7,21.5,29.64,NW,318,3.0,6.0,84,0.00,,,0.00,0,Wunderground v.1.15,2013-02-19 01:58:00,
2013-02-18 19:59:00,25.7,21.5,29.64,West,271,3.0,6.0,84,0.00,,,0.00,0,Wunderground v.1.15,2013-02-19 01:59:00,
2013-02-18 20:03:00,25.6,21.4,29.65,West,278,3.0,5.0,84,0.00,,,0.00,0,Wunderground v.1.15,2013-02-19 02:03:00,
2013-02-18 20:06:00,25.4,21.2,29.65,West,262,3.0,5.0,84,0.00,,,0.00,0,Wunderground v.1.15,2013-02-19 02:06:00,
2013-02-18 20:09:00,25.2,21.0,29.65,West,281,3.0,9.0,84,0.00,,,0.00,0,Wunderground v.1.15,2013-02-19 02:09:00,
2013-02-18 20:11:00,25.1,20.7,29.65,North,360,3.0,4.0,83,0.00,,,0.00,0,Wunderground v.1.15,2013-02-19 02:11:00,
2013-02-18 20:13:00,24.8,20.4,29.65,NW,314,4.0,6.0,83,0.00,,,0.00,0,Wunderground v.1.15,2013-02-19 02:13:00,
2013-02-18 20:18:00,24.6,20.2,29.65,NW,313,4.0,6.0,83,0.00,,,0.00,0,Wunderground v.1.15,2013-02-19 02:18:00,
2013-02-18 20:21:00,24.5,20.1,29.65,NNW,336,4.0,10.0,83,0.00,,,0.00,0,Wunderground v.1.15,2013-02-19 02:21:00,
2013-02-18 20:26:00,24.3,19.9,29.66,North,360,4.0,10.0,83,0.00,,,0.00,0,Wunderground v.1.15,2013-02-19 02:26:00,
2013-02-18 20:28:00,24.2,19.5,29.66,North,350,4.0,10.0,82,0.00,,,0.00,0,Wunderground v.1.15,2013-02-19 02:28:00,
2013-02-18 20:29:00,24.1,19.4,29.66,NW,305,5.0,10.0,82,0.00,,,0.00,0,Wunderground v.1.15,2013-02-19 02:29:00,
2013-02-18 20:31:00,23.9,19.2,29.66,NNW,340,6.0,9.0,82,0.00,,,0.00,0,Wunderground v.1.15,2013-02-19 02:31:00,
2013-02-18 20:34:00,23.8,19.1,29.66,NW,308,5.0,9.0,82,0.00,,,0.00,0,Wunderground v.1.15,2013-02-19 02:34:00,
2013-02-18 20:35:00,23.8,19.1,29.66,NW,306,5.0,10.0,82,0.00,,,0.00,0,Wunderground v.1.15,2013-02-19 02:35:00,
2013-02-18 20:38:00,23.7,19.0,29.66,NW,304,5.0,10.0,82,0.00,,,0.00,0,Wunderground v.1.15,2013-02-19 02:38:00,
2013-02-18 20:41:00,23.5,18.8,29.66,North,355,5.0,6.0,82,0.00,,,0.00,0,Wunderground v.1.15,2013-02-19 02:41:00,
2013-02-18 20:44:00,23.3,18.6,29.66,WSW,257,5.0,6.0,82,0.00,,,0.00,0,Wunderground v.1.15,2013-02-19 02:44:00,
2013-02-18 20:47:00,23.2,18.5,29.66,NNW,331,4.0,12.0,82,0.00,,,0.00,0,Wunderground v.1.15,2013-02-19 02:47:00,
2013-02-18 20:48:00,23.1,18.4,29.66,WNW,292,4.0,12.0,82,0.00,,,0.00,0,Wunderground v.1.15,2013-02-19 02:48:00,
2013-02-18 20:51:00,22.9,17.9,29.66,WSW,257,4.0,8.0,81,0.00,,,0.00,0,Wunderground v.1.15,2013-02-19 02:51:00,
2013-02-18 20:53:00,22.8,17.8,29.66,NNE,26,5.0,11.0,81,0.00,,,0.00,0,Wunderground v.1.15,2013-02-19 02:53:00,
2013-02-18 20:54:00,22.7,17.7,29.66,SW,225,5.0,11.0,81,0.00,,,0.00,0,Wunderground v.1.15,2013-02-19 02:54:00,
2013-02-18 20:57:00,22.5,17.5,29.66,NW,304,6.0,11.0,81,0.00,,,0.00,0,Wunderground v.1.15,2013-02-19 02:57:00,
2013-02-18 21:01:00,22.3,17.4,29.67,West,280,5.0,6.0,81,0.00,,,0.00,0,Wunderground v.1.15,2013-02-19 03:01:00,
2013-02-18 21:04:00,22.2,17.5,29.67,WNW,292,5.0,6.0,82,0.00,,,0.00,0,Wunderground v.1.15,2013-02-19 03:04:00,
2013-02-18 21:07:00,22.1,17.4,29.66,SW,236,4.0,8.0,82,0.00,,,0.00,0,Wunderground v.1.15,2013-02-19 03:07:00,
2013-02-18 21:09:00,22.0,17.3,29.66,WSW,242,5.0,8.0,82,0.00,,,0.00,0,Wunderground v.1.15,2013-02-19 03:09:00,
2013-02-18 21:14:00,21.8,17.2,29.67,West,267,5.0,7.0,82,0.00,,,0.00,0,Wunderground v.1.15,2013-02-19 03:14:00,
2013-02-18 21:17:00,21.8,17.2,29.67,SSW,207,4.0,7.0,82,0.00,,,0.00,0,Wunderground v.1.15,2013-02-19 03:17:00,
2013-02-18 21:20:00,21.7,17.1,29.67,SSW,200,4.0,4.0,82,0.00,,,0.00,0,Wunderground v.1.15,2013-02-19 03:20:00,
2013-02-18 21:23:00,21.5,16.9,29.67,West,274,5.0,6.0,82,0.00,,,0.00,0,Wunderground v.1.15,2013-02-19 03:23:00,
2013-02-18 21:24:00,21.4,16.8,29.67,WSW,250,5.0,9.0,82,0.00,,,0.00,0,Wunderground v.1.15,2013-02-19 03:24:00,
2013-02-18 21:28:00,21.2,16.6,29.67,SW,221,5.0,9.0,82,0.00,,,0.00,0,Wunderground v.1.15,2013-02-19 03:28:00,
2013-02-18 21:33:00,20.9,16.3,29.67,West,269,6.0,9.0,82,0.00,,,0.00,0,Wunderground v.1.15,2013-02-19 03:33:00,
2013-02-18 21:34:00,20.9,16.3,29.67,NW,319,6.0,9.0,82,0.00,,,0.00,0,Wunderground v.1.15,2013-02-19 03:34:00,
2013-02-18 21:35:00,20.9,16.3,29.67,NW,321,6.0,9.0,82,0.00,,,0.00,0,Wunderground v.1.15,2013-02-19 03:35:00,
2013-02-18 21:39:00,20.9,16.3,29.67,WSW,248,5.0,9.0,82,0.00,,,0.00,0,Wunderground v.1.15,2013-02-19 03:39:00,
2013-02-18 21:40:00,20.9,16.3,29.67,North,355,4.0,4.0,82,0.00,,,0.00,0,Wunderground v.1.15,2013-02-19 03:40:00,
2013-02-18 21:41:00,20.8,16.2,29.67,NW,313,4.0,4.0,82,0.00,,,0.00,0,Wunderground v.1.15,2013-02-19 03:41:00,
2013-02-18 21:45:00,20.8,16.2,29.67,South,188,4.0,10.0,82,0.00,,,0.00,0,Wunderground v.1.15,2013-02-19 03:45:00,
2013-02-18 21:46:00,20.7,18.0,29.67,WSW,238,4.0,10.0,89,0.00,,,0.00,0,Wunderground v.1.15,2013-02-19 03:46:00,
2013-02-18 21:50:00,20.5,15.6,29.67,SW,223,5.0,5.0,81,0.00,,,0.00,0,Wunderground v.1.15,2013-02-19 03:50:00,
2013-02-18 21:52:00,20.4,15.5,29.67,SW,234,5.0,8.0,81,0.00,,,0.00,0,Wunderground v.1.15,2013-02-19 03:52:00,
2013-02-18 21:57:00,20.3,15.7,29.67,NW,306,5.0,9.0,82,0.00,,,0.00,0,Wunderground v.1.15,2013-02-19 03:57:00,
2013-02-18 21:59:00,20.2,15.6,29.68,SW,223,4.0,10.0,82,0.00,,,0.00,0,Wunderground v.1.15,2013-02-19 03:59:00,
2013-02-18 22:00:00,20.1,15.5,29.67,WSW,244,4.0,7.0,82,0.00,,,0.00,0,Wunderground v.1.15,2013-02-19 04:00:00,
2013-02-18 22:04:00,20.0,15.4,29.68,West,259,4.0,7.0,82,0.00,,,0.00,0,Wunderground v.1.15,2013-02-19 04:04:00,
2013-02-18 22:08:00,19.9,15.3,29.68,West,267,4.0,7.0,82,0.00,,,0.00,0,Wunderground v.1.15,2013-02-19 04:08:00,
2013-02-18 22:11:00,19.8,15.2,29.68,NNW,330,4.0,5.0,82,0.00,,,0.00,0,Wunderground v.1.15,2013-02-19 04:11:00,
2013-02-18 22:13:00,19.7,15.4,29.68,NW,304,4.0,5.0,83,0.00,,,0.00,0,Wunderground v.1.15,2013-02-19 04:13:00,
2013-02-18 22:18:00,19.5,15.2,29.68,West,274,6.0,9.0,83,0.00,,,0.00,0,Wunderground v.1.15,2013-02-19 04:18:00,
2013-02-18 22:19:00,19.5,15.2,29.68,SSW,204,6.0,9.0,83,0.00,,,0.00,0,Wunderground v.1.15,2013-02-19 04:19:00,
2013-02-18 22:20:00,19.4,15.1,29.69,SW,225,6.0,6.0,83,0.00,,,0.00,0,Wunderground v.1.15,2013-02-19 04:20:00,
2013-02-18 22:24:00,19.3,15.0,29.69,WSW,248,6.0,6.0,83,0.00,,,0.00,0,Wunderground v.1.15,2013-02-19 04:24:00,
2013-02-18 22:28:00,19.2,15.2,29.69,NW,310,5.0,6.0,84,0.00,,,0.00,0,Wunderground v.1.15,2013-02-19 04:28:00,
2013-02-18 22:29:00,19.2,15.2,29.69,SW,233,5.0,6.0,84,0.00,,,0.00,0,Wunderground v.1.15,2013-02-19 04:29:00,
2013-02-18 22:31:00,19.1,15.1,29.69,WSW,252,4.0,7.0,84,0.00,,,0.00,0,Wunderground v.1.15,2013-02-19 04:31:00,
2013-02-18 22:35:00,19.1,15.3,29.69,SW,223,4.0,11.0,85,0.00,,,0.00,0,Wunderground v.1.15,2013-02-19 04:35:00,
2013-02-18 22:36:00,19.1,15.3,29.69,WSW,242,4.0,11.0,85,0.00,,,0.00,0,Wunderground v.1.15,2013-02-19 04:36:00,
2013-02-18 22:37:00,19.0,15.2,29.69,SW,230,4.0,11.0,85,0.00,,,0.00,0,Wunderground v.1.15,2013-02-19 04:37:00,
2013-02-18 22:42:00,18.8,15.0,29.70,SW,230,4.0,9.0,85,0.00,,,0.00,0,Wunderground v.1.15,2013-02-19 04:42:00,
2013-02-18 22:44:00,18.8,15.0,29.70,WSW,240,5.0,9.0,85,0.00,,,0.00,0,Wunderground v.1.15,2013-02-19 04:44:00,
2013-02-18 22:47:00,18.7,14.9,29.70,WSW,244,5.0,9.0,85,0.00,,,0.00,0,Wunderground v.1.15,2013-02-19 04:47:00,
2013-02-18 22:50:00,18.6,14.8,29.70,SSW,209,6.0,6.0,85,0.00,,,0.00,0,Wunderground v.1.15,2013-02-19 04:50:00,
2013-02-18 22:53:00,18.5,14.7,29.70,NW,321,5.0,6.0,85,0.00,,,0.00,0,Wunderground v.1.15,2013-02-19 04:53:00,
2013-02-18 22:55:00,18.5,14.7,29.70,WSW,240,5.0,7.0,85,0.00,,,0.00,0,Wunderground v.1.15,2013-02-19 04:55:00,
2013-02-18 22:56:00,18.5,14.7,29.70,SW,215,6.0,12.0,85,0.00,,,0.00,0,Wunderground v.1.15,2013-02-19 04:56:00,
2013-02-18 22:59:00,18.5,14.7,29.70,SW,227,5.0,12.0,85,0.00,,,0.00,0,Wunderground v.1.15,2013-02-19 04:59:00,
2013-02-18 23:00:00,18.4,14.6,29.70,SSW,208,5.0,11.0,85,0.00,,,0.00,0,Wunderground v.1.15,2013-02-19 05:00:00,
2013-02-18 23:02:00,18.3,14.5,29.70,West,281,6.0,11.0,85,0.00,,,0.00,0,Wunderground v.1.15,2013-02-19 05:02:00,
2013-02-18 23:06:00,18.2,14.4,29.70,SW,231,7.0,11.0,85,0.00,,,0.00,0,Wunderground v.1.15,2013-02-19 05:06:00,
2013-02-18 23:07:00,18.2,14.4,29.70,SW,230,7.0,11.0,85,0.00,,,0.00,0,Wunderground v.1.15,2013-02-19 05:07:00,
2013-02-18 23:09:00,18.1,14.4,29.70,WSW,241,7.0,11.0,85,0.00,,,0.00,0,Wunderground v.1.15,2013-02-19 05:09:00,
2013-02-18 23:11:00,18.1,14.4,29.71,WSW,245,7.0,10.0,85,0.00,,,0.00,0,Wunderground v.1.15,2013-02-19 05:11:00,
2013-02-18 23:14:00,18.0,14.3,29.71,SW,227,7.0,15.0,85,0.00,,,0.00,0,Wunderground v.1.15,2013-02-19 05:14:00,
2013-02-18 23:15:00,18.0,14.3,29.70,West,267,7.0,15.0,85,0.00,,,0.00,0,Wunderground v.1.15,2013-02-19 05:15:00,
2013-02-18 23:19:00,17.9,14.2,29.71,WSW,237,7.0,15.0,85,0.00,,,0.00,0,Wunderground v.1.15,2013-02-19 05:19:00,
2013-02-18 23:20:00,17.9,14.4,29.71,SW,222,7.0,8.0,86,0.00,,,0.00,0,Wunderground v.1.15,2013-02-19 05:20:00,
2013-02-18 23:21:00,17.9,14.4,29.71,SSW,209,7.0,8.0,86,0.00,,,0.00,0,Wunderground v.1.15,2013-02-19 05:21:00,
2013-02-18 23:22:00,17.9,14.4,29.71,SW,224,7.0,8.0,86,0.00,,,0.00,0,Wunderground v.1.15,2013-02-19 05:22:00,
2013-02-18 23:26:00,17.8,14.3,29.71,SW,219,6.0,9.0,86,0.00,,,0.00,0,Wunderground v.1.15,2013-02-19 05:26:00,
2013-02-18 23:27:00,17.8,14.3,29.71,SW,222,6.0,9.0,86,0.00,,,0.00,0,Wunderground v.1.15,2013-02-19 05:27:00,
2013-02-18 23:32:00,17.7,14.0,29.71,SW,230,6.0,7.0,85,0.00,,,0.00,0,Wunderground v.1.15,2013-02-19 05:32:00,
2013-02-18 23:33:00,17.6,13.9,29.71,WSW,239,6.0,7.0,85,0.00,,,0.00,0,Wunderground v.1.15,2013-02-19 05:33:00,
2013-02-18 23:36:00,17.6,14.1,29.71,SW,229,6.0,7.0,86,0.00,,,0.00,0,Wunderground v.1.15,2013-02-19 05:36:00,
2013-02-18 23:37:00,17.6,14.1,29.71,WSW,237,6.0,7.0,86,0.00,,,0.00,0,Wunderground v.1.15,2013-02-19 05:37:00,
2013-02-18 23:39:00,17.6,14.1,29.71,SW,236,6.0,7.0,86,0.00,,,0.00,0,Wunderground v.1.15,2013-02-19 05:39:00,
2013-02-18 23:42:00,17.6,14.1,29.71,WSW,253,5.0,5.0,86,0.00,,,0.00,0,Wunderground v.1.15,2013-02-19 05:42:00,
2013-02-18 23:43:00,17.6,14.1,29.71,West,268,5.0,6.0,86,0.00,,,0.00,0,Wunderground v.1.15,2013-02-19 05:43:00,
2013-02-18 23:44:00,17.6,14.1,29.71,WNW,299,5.0,6.0,86,0.00,,,0.00,0,Wunderground v.1.15,2013-02-19 05:44:00,
2013-02-18 23:46:00,17.6,14.1,29.71,West,263,5.0,8.0,86,0.00,,,0.00,0,Wunderground v.1.15,2013-02-19 05:46:00,
2013-02-18 23:50:00,17.5,14.0,29.72,West,271,5.0,5.0,86,0.00,,,0.00,0,Wunderground v.1.15,2013-02-19 05:50:00,
2013-02-18 23:52:00,17.5,14.0,29.72,WSW,246,5.0,5.0,86,0.00,,,0.00,0,Wunderground v.1.15,2013-02-19 05:52:00,
2013-02-18 23:53:00,17.6,14.1,29.72,WSW,246,4.0,5.0,86,0.00,,,0.00,0,Wunderground v.1.15,2013-02-19 05:53:00,
2013-02-18 23:56:00,17.5,14.0,29.71,SW,233,4.0,8.0,86,0.00,,,0.00,0,Wunderground v.1.15,2013-02-19 05:56:00,
2013-02-18 23:57:00,17.5,14.0,29.72,SW,236,4.0,8.0,86,0.00,,,0.00,0,Wunderground v.1.15,2013-02-19 05:57:00,